GFSCGP_500_spd_036.txt.gz
Wind_Speed
8 12 10 18 17 11 11 9 7 9 5 9 9 9 7 10 8 6 4 4 4 5 5 7 10 11 15 14 19 20 22 25 27 28 29 29 28 30 33 32 32 33 36 38
14 16 15 18 14 15 6 4 9 10 7 11 7 15 19 9 8 7 7 7 7 8 8 10 12 14 17 15 20 23 25 27 27 27 28 27 29 28 30 33 35 38 41 44
14 23 14 13 14 13 4 8 15 6 7 7 14 13 21 9 8 8 8 11 11 11 10 14 15 16 20 21 24 26 28 26 27 25 23 22 25 28 31 34 37 41 43 47
23 16 15 15 14 7 10 12 8 6 9 7 17 13 27 16 11 8 10 14 17 18 18 17 20 21 23 26 26 27 27 23 21 21 23 26 28 31 34 36 38 42 45 49
9 12 9 9 15 13 9 9 9 9 8 12 16 19 7 18 10 14 10 16 23 24 24 24 22 26 27 28 27 25 19 20 21 24 26 30 34 36 39 42 45 48 49 53
14 17 12 18 10 7 1 4 5 7 11 20 3 10 18 23 14 21 4 11 21 27 28 29 28 28 29 27 21 18 20 20 25 29 31 35 39 42 44 47 49 51 53 54
8 5 11 3 4 4 6 3 5 16 12 8 4 14 18 19 22 24 24 22 25 30 29 30 29 26 19 16 19 21 23 26 30 33 37 40 43 46 48 50 51 53 55 56
6 13 8 9 7 13 11 10 16 15 9 4 13 2 12 17 20 21 25 21 20 19 18 18 17 15 16 20 22 25 29 33 35 39 42 44 47 49 51 53 55 56 57 57
17 21 19 21 15 18 11 13 17 11 10 12 9 11 19 12 16 16 13 12 11 12 12 14 16 19 22 25 28 32 35 39 41 45 47 49 51 53 54 55 57 58 55 59
24 29 17 16 12 16 17 15 12 15 14 11 1 2 21 15 13 13 14 13 14 15 17 19 21 24 26 29 32 37 41 44 45 48 49 51 54 54 55 56 56 55 57 60
20 11 7 10 13 15 14 14 13 15 13 12 9 10 17 18 16 15 17 17 18 20 22 24 27 29 32 35 38 40 44 48 49 51 51 54 56 56 56 57 57 55 61 65
19 21 26 13 20 14 14 13 13 16 15 18 14 19 16 16 18 17 19 23 23 25 27 29 31 35 37 41 43 45 48 51 53 54 53 55 57 58 57 59 58 54 61 63
24 21 19 14 15 12 15 17 18 20 18 16 16 15 22 19 21 24 24 25 28 29 32 35 39 40 43 46 49 51 51 52 54 53 54 55 57 58 60 59 55 62 61 62
21 19 20 19 10 17 15 19 20 21 20 15 18 17 19 24 31 32 27 27 32 36 36 40 46 50 50 51 52 53 53 51 53 53 55 56 57 55 57 58 57 60 61 63
23 21 22 22 18 25 25 20 19 21 19 21 18 21 20 23 32 37 38 37 38 38 46 47 49 51 52 54 53 52 54 52 51 55 56 57 55 55 56 58 59 61 64 67
26 25 26 23 22 24 24 21 21 21 21 22 23 26 25 34 36 34 40 41 44 46 48 51 47 49 52 54 55 52 53 53 54 55 54 53 54 55 58 60 62 64 68 69
23 23 24 22 23 22 22 19 20 20 23 24 27 28 32 34 40 40 37 43 46 46 47 51 53 51 52 55 56 54 53 53 52 52 53 54 56 57 58 59 61 66 71 73
21 22 23 22 23 23 19 18 19 21 22 27 31 34 32 36 40 42 45 46 48 52 52 51 53 54 52 51 53 52 51 51 52 53 55 55 55 57 61 63 66 73 84 80
20 21 22 23 23 20 19 21 19 21 26 29 30 31 35 39 39 44 47 48 50 51 53 52 49 49 50 51 50 50 51 53 55 55 56 57 63 66 67 68 71 76 81 87
18 18 20 19 20 21 23 20 21 23 28 28 28 32 35 38 43 46 47 50 50 48 49 47 46 48 48 49 49 52 55 56 56 56 57 60 62 72 67 74 76 75 87 75
17 17 18 18 19 18 22 17 21 23 26 29 32 35 38 41 46 48 47 49 49 49 50 48 47 48 49 51 52 53 52 55 57 58 58 65 69 66 73 81 75 80 69 71
14 14 14 14 15 18 19 22 23 26 30 33 36 39 42 43 44 46 48 48 43 51 52 49 50 50 51 51 52 53 55 58 59 61 62 63 71 70 83 84 67 66 71 76
14 14 15 16 20 21 24 26 29 31 33 37 40 42 44 45 46 47 49 50 48 50 50 51 50 49 52 53 55 58 60 63 65 62 65 71 78 80 74 66 70 75 77 78
19 18 20 20 25 29 29 31 33 34 39 41 43 45 45 44 47 49 50 49 50 51 51 48 50 53 55 57 60 63 65 66 68 66 67 75 78 75 72 71 78 80 73 68
24 23 26 26 29 32 36 38 38 41 42 44 46 46 45 47 48 48 48 50 50 49 50 52 54 57 60 63 65 66 67 67 66 66 71 78 76 74 77 78 71 68 65 61
29 30 31 33 34 35 40 41 43 45 45 45 46 46 47 47 47 49 49 49 50 51 53 56 59 62 65 67 69 69 66 64 65 69 71 74 79 77 72 71 68 65 60 56

GFSCGP_500_spd_039.txt.gz
Wind_Speed
7 10 12 17 16 13 18 13 13 6 3 9 2 2 6 3 4 0 1 1 3 3 2 0 3 1 3 9 13 14 19 19 20 22 22 24 23 21 20 22 24 27 29 30
7 13 17 14 14 14 14 10 7 11 4 9 10 7 10 2 6 5 3 2 4 3 5 8 10 9 8 9 14 18 22 24 21 21 20 18 18 20 22 25 28 32 34 36
14 13 15 15 11 10 15 3 7 12 10 4 11 11 5 4 7 8 5 2 2 5 7 12 14 16 16 17 18 21 22 23 20 20 17 17 20 23 27 30 33 37 40 42
14 17 9 9 17 17 12 6 7 11 4 8 18 15 17 19 7 12 10 9 7 7 7 12 19 23 21 22 24 22 19 19 17 17 18 23 25 28 31 35 38 42 45 48
11 13 12 12 19 17 4 2 13 10 8 10 16 20 19 26 19 16 13 12 16 14 14 12 15 22 25 24 23 19 14 15 17 20 22 29 31 33 37 41 43 46 49 51
10 11 14 4 15 10 4 9 9 14 19 15 6 15 6 12 14 17 13 4 17 17 16 14 12 17 23 25 18 15 16 18 22 26 29 34 38 41 44 47 49 52 55 56
7 9 7 11 8 8 6 11 13 13 14 11 11 16 8 11 14 14 6 13 15 17 18 17 14 12 13 16 15 18 21 22 27 33 36 39 43 46 49 53 54 56 57 57
6 11 10 11 6 6 4 11 13 16 17 16 13 9 9 7 12 12 10 10 9 9 11 13 11 9 12 15 18 22 26 27 31 36 39 43 46 49 52 54 54 55 55 57
11 15 14 12 17 15 11 7 15 18 10 9 3 7 14 14 17 11 11 9 8 8 9 11 13 14 17 20 22 26 31 34 36 38 41 45 48 51 54 55 55 54 55 56
18 19 19 23 20 14 15 16 14 17 16 8 8 15 14 12 14 11 9 12 12 12 14 16 18 20 22 26 29 31 35 39 41 41 44 47 47 50 52 52 54 57 57 52
22 21 21 27 21 16 15 16 16 17 15 13 14 14 8 10 13 17 15 14 15 17 19 21 23 25 26 28 32 37 40 45 46 47 47 47 47 49 51 53 56 56 56 50
18 20 18 6 9 7 13 12 14 19 15 18 12 14 18 14 17 17 22 22 19 20 24 27 29 31 32 34 37 39 41 45 48 50 50 48 49 52 50 55 56 56 52 51
18 21 20 15 12 15 16 17 19 19 18 15 14 12 17 22 25 28 25 24 26 28 30 33 35 37 39 42 38 38 40 47 50 51 52 52 53 56 55 57 55 54 55 55
19 19 17 18 18 20 17 13 18 22 23 16 15 12 19 21 26 32 29 27 24 27 34 38 41 43 44 40 40 41 45 50 50 53 51 52 55 55 56 55 55 57 57 58
24 22 21 22 21 26 21 22 23 18 21 19 13 17 15 22 26 31 33 33 35 38 40 45 48 44 42 41 47 45 47 47 54 51 53 54 54 55 55 56 58 60 58 61
24 24 25 24 24 26 25 23 22 20 18 18 16 18 20 28 32 33 34 34 38 43 45 46 48 46 46 46 40 41 48 51 51 53 53 53 54 55 57 59 58 59 62 68
26 27 29 27 26 26 27 16 24 20 20 21 23 25 27 30 32 35 36 38 39 42 44 45 47 49 51 52 48 44 45 48 49 52 55 55 56 58 58 59 61 63 64 69
21 25 26 24 25 26 18 21 19 20 22 24 25 27 27 29 31 34 39 41 43 45 47 47 48 48 47 48 44 41 42 46 52 55 57 57 56 57 59 60 62 69 73 80
23 23 23 24 24 22 22 19 16 21 23 24 24 25 28 31 34 37 39 41 44 46 49 50 49 46 46 47 46 47 50 51 55 55 54 55 57 60 62 64 66 69 70 74
24 22 23 23 23 22 22 21 18 23 26 23 24 26 29 31 34 37 40 43 46 48 47 45 44 43 44 46 48 50 51 52 52 54 56 60 62 64 65 66 70 74 78 82
24 22 21 20 20 20 18 18 22 24 24 21 24 26 29 33 36 40 43 46 46 45 44 45 47 49 48 49 50 50 50 53 55 57 59 62 64 69 68 70 74 77 80 84
21 20 18 17 18 19 17 18 19 20 20 24 28 31 34 36 39 43 46 46 44 43 45 47 48 49 51 51 51 52 54 57 59 62 66 68 69 68 70 68 73 77 76 75
17 16 16 16 15 17 18 19 19 20 24 29 32 34 37 40 43 44 44 44 44 45 46 47 49 49 50 51 52 54 57 61 65 67 69 69 70 71 70 70 72 74 72 67
16 16 17 19 19 21 21 22 24 25 30 33 37 40 41 43 44 44 45 46 46 47 49 50 50 51 52 53 56 60 63 65 65 65 66 68 71 71 71 72 69 67 65 66
19 20 20 22 24 25 28 29 31 34 35 39 42 42 43 44 45 46 47 47 49 51 51 52 52 52 54 58 62 64 63 62 64 66 67 69 70 69 67 66 66 66 68 71
25 24 25 27 28 30 33 36 38 41 43 45 45 45 45 46 46 47 48 50 51 52 52 51 52 56 59 62 62 60 61 63 66 68 70 70 68 66 65 64 64 68 71 73

GFSCGP_500_spd_042.txt.gz
Wind_Speed
6 8 13 16 14 17 15 13 11 8 6 2 6 1 2 5 6 4 4 4 5 4 5 6 2 4 5 5 7 10 12 12 13 11 13 14 15 12 13 15 17 20 24 27
4 9 11 16 20 17 15 18 14 10 5 3 1 2 6 5 3 5 3 1 3 4 4 5 3 1 4 8 11 14 16 14 10 11 13 10 10 14 18 21 26 29 32 34
8 9 10 14 14 15 15 11 15 13 7 1 5 11 9 6 7 3 2 3 3 4 5 2 1 1 4 6 11 16 17 16 11 13 13 12 17 20 26 28 32 35 38 40
4 8 10 7 12 16 19 16 19 14 13 11 11 14 6 11 12 7 4 6 7 5 6 8 7 8 7 8 12 16 14 17 13 14 15 19 21 25 30 33 37 39 43 44
6 6 11 7 15 17 8 10 11 19 15 11 12 15 13 13 14 16 9 7 4 4 6 9 10 9 11 12 12 12 11 11 14 16 19 24 27 31 34 37 40 43 45 47
3 5 6 10 18 17 12 15 13 12 12 13 13 12 7 15 5 5 5 1 7 6 6 7 6 7 11 14 12 10 9 13 16 19 23 27 31 34 38 41 43 45 48 49
3 4 9 13 21 14 12 13 13 14 14 13 17 16 11 8 5 1 3 10 9 6 3 2 3 3 6 9 10 11 15 18 22 25 28 31 34 38 42 45 47 49 51 52
9 8 4 15 19 17 16 15 14 15 14 7 22 19 13 11 6 4 5 7 5 1 1 1 4 6 6 10 15 16 19 23 27 31 33 35 40 42 46 48 51 55 54 51
15 15 9 13 10 16 16 16 15 16 16 13 15 25 19 12 10 9 4 4 3 6 6 4 8 10 11 13 19 22 25 28 32 35 36 42 43 44 49 50 50 49 53 55
16 14 16 17 17 15 16 14 16 15 16 15 14 21 16 13 12 7 8 7 9 9 8 10 11 14 16 19 23 28 32 36 38 39 41 41 40 41 43 46 49 50 54 55
22 20 16 17 21 21 23 19 18 18 18 15 15 17 17 16 16 14 12 14 11 11 12 13 15 17 20 24 29 33 37 42 43 44 39 38 43 43 48 49 50 52 55 58
25 24 21 16 14 20 29 17 16 17 18 21 18 16 19 23 23 21 20 17 14 14 16 19 22 23 26 29 33 39 42 42 40 40 46 47 49 50 52 54 53 52 57 59
13 16 18 17 18 16 16 20 16 21 18 19 21 13 19 22 26 29 28 22 19 19 21 24 27 28 30 32 35 30 36 39 41 43 47 50 53 55 57 56 56 57 58 59
16 19 18 15 19 22 21 19 18 23 25 22 21 17 21 24 28 29 29 23 20 22 25 28 30 32 33 34 33 39 37 37 39 41 46 50 52 56 56 56 57 60 60 61
23 20 18 16 19 22 23 21 23 22 21 22 20 22 19 26 30 28 28 25 23 25 29 31 33 36 37 35 41 42 42 44 44 43 47 44 47 57 56 57 59 60 60 61
20 22 23 22 24 26 28 25 23 27 27 22 19 22 23 30 30 27 27 28 30 32 34 36 40 45 47 46 40 38 36 36 40 48 44 47 54 55 59 60 58 60 62 64
24 26 26 27 27 29 34 27 25 26 31 27 26 25 24 24 27 27 28 29 32 36 38 40 43 44 45 47 45 34 42 40 40 44 51 54 56 58 58 59 60 62 66 71
27 30 31 31 31 36 29 29 31 27 26 28 26 25 23 23 24 27 30 33 35 37 39 41 43 45 47 46 46 43 44 46 46 51 53 54 55 56 58 60 64 62 75 80
25 30 27 29 29 30 27 27 26 25 26 25 23 23 23 25 27 31 33 35 37 39 41 43 45 46 47 46 46 46 46 47 49 49 51 53 56 57 62 59 67 69 71 74
25 29 31 27 25 26 22 25 24 25 26 22 21 22 24 28 30 32 34 36 39 40 44 46 47 47 46 46 46 46 47 48 48 50 52 54 57 61 67 68 68 70 73 76
29 28 29 26 26 24 19 23 24 25 20 20 22 25 27 30 31 34 36 39 41 44 45 46 46 46 48 47 47 49 50 50 52 53 55 55 57 63 66 67 69 72 76 77
28 28 26 24 25 21 19 20 20 18 20 20 23 26 28 31 33 36 39 42 44 45 46 46 47 47 48 49 50 51 51 50 52 55 58 61 60 61 65 69 72 74 75 75
28 24 24 23 22 19 17 15 14 15 19 24 26 29 31 34 37 40 41 44 45 45 46 47 47 49 51 52 53 52 51 54 57 60 60 60 62 64 69 71 73 75 75 70
26 22 20 21 18 16 15 16 17 20 24 27 29 32 35 38 41 43 44 45 46 47 47 48 49 51 53 53 51 52 56 58 58 58 60 63 66 69 70 72 74 74 69 67
25 23 22 21 19 20 20 22 24 26 28 31 34 37 39 41 42 44 46 47 47 47 49 51 52 54 53 51 54 56 57 57 59 61 64 66 69 71 73 73 73 71 67 68
29 25 24 24 25 25 27 28 30 33 36 38 40 42 44 45 46 47 48 48 48 51 52 54 54 52 53 55 57 57 56 58 60 63 66 68 71 73 74 74 73 69 68 69

GFSCGP_500_spd_045.txt.gz
Wind_Speed
12 14 10 13 17 18 15 15 14 8 8 7 11 9 5 2 2 5 7 10 9 7 6 7 6 5 4 2 3 3 3 4 4 5 7 10 11 11 9 12 14 17 21 26
9 11 9 12 15 19 16 12 13 13 9 8 6 10 9 6 8 9 7 9 11 10 9 7 6 4 3 2 1 2 3 3 4 6 7 9 9 9 13 15 20 23 26 30
8 10 8 12 13 16 13 15 17 14 12 8 9 10 8 7 9 9 10 10 12 10 8 5 5 3 2 4 5 6 7 3 4 6 8 9 8 14 18 21 26 29 32 34
8 9 9 15 14 12 18 13 18 20 15 13 8 6 7 8 13 10 5 5 8 9 9 8 6 5 4 6 7 10 10 7 5 7 10 13 14 19 24 29 33 35 37 40
7 12 9 10 8 13 21 18 19 20 18 12 12 10 6 12 13 9 12 11 13 9 8 7 6 8 10 9 11 11 11 10 9 10 14 17 20 24 30 34 37 39 41 45
11 10 11 11 8 21 18 18 20 22 19 15 13 11 3 8 7 6 6 8 10 7 9 10 10 11 13 12 12 11 9 12 12 15 18 22 25 30 34 37 40 43 44 49
13 11 8 10 12 21 21 17 14 16 17 17 15 15 9 6 7 10 11 11 9 8 9 8 8 10 10 11 9 10 11 14 14 18 23 28 30 34 36 41 46 43 48 49
16 10 8 11 12 19 22 18 18 16 15 16 15 13 11 12 12 14 13 11 9 7 5 5 7 6 7 9 10 12 16 17 20 23 27 32 35 40 41 47 48 48 47 51
17 16 12 10 22 20 18 17 17 17 16 18 17 18 14 15 15 16 12 10 9 7 6 5 6 7 9 12 13 17 19 23 26 29 34 37 41 42 43 44 47 45 50 49
21 18 18 16 19 20 17 17 19 21 22 17 19 17 14 16 18 18 13 11 8 7 8 10 10 11 12 15 18 21 26 30 33 37 40 43 39 41 40 45 44 51 52 53
25 24 22 19 19 17 18 21 22 22 24 22 19 17 17 18 18 18 17 14 13 10 12 13 13 15 17 20 23 26 30 34 37 39 39 39 39 44 44 49 54 53 53 56
26 27 28 22 22 24 20 30 31 26 23 24 22 16 18 19 21 22 21 19 18 17 16 16 18 19 21 24 27 30 32 36 37 37 39 41 46 51 49 51 50 52 54 55
24 27 26 20 22 22 16 18 23 25 23 22 21 14 17 23 26 27 28 24 22 20 22 22 21 22 25 29 33 33 34 33 37 39 41 43 40 45 50 55 57 53 57 64
20 20 22 21 17 21 19 18 23 26 27 25 23 19 21 24 29 30 29 23 19 21 22 23 26 29 29 30 32 32 34 36 36 38 39 41 43 49 54 56 57 59 62 65
25 20 19 18 18 23 24 24 26 25 25 24 18 20 22 30 32 32 29 25 22 21 22 25 26 27 29 32 32 32 34 34 43 47 38 40 48 52 55 56 57 63 63 63
23 23 22 21 19 22 26 28 29 26 27 28 29 28 27 29 32 30 26 26 25 25 27 30 31 32 33 33 37 40 41 47 46 43 46 48 49 53 54 58 58 59 61 63
25 25 25 26 26 26 31 27 28 28 29 31 33 31 29 27 28 28 26 26 27 29 30 32 34 36 38 41 44 47 48 47 46 47 49 51 53 54 56 57 59 60 61 61
28 29 30 30 28 32 26 29 31 34 33 31 35 35 28 27 25 26 26 27 29 30 32 34 36 39 42 45 47 47 46 46 48 49 50 52 54 56 56 57 58 54 67 72
31 29 31 32 32 30 28 28 30 31 32 32 30 30 28 27 26 26 28 30 31 32 34 36 39 42 44 46 47 46 46 47 48 50 51 52 53 55 54 57 59 56 67 72
30 30 34 33 33 30 25 28 28 28 31 27 27 27 25 25 27 30 31 31 31 33 37 40 42 45 47 47 47 48 48 49 51 52 52 52 51 45 57 62 63 62 64 68
30 31 34 34 34 32 28 27 30 30 20 22 23 25 28 29 30 29 29 31 34 37 39 43 45 47 47 47 47 47 48 51 52 53 51 50 53 56 58 60 62 64 67 70
32 33 34 32 34 31 26 26 25 19 20 20 24 26 28 28 27 29 32 35 37 40 43 45 46 46 46 46 47 49 51 53 54 51 52 55 56 57 59 61 64 67 72 74
33 33 35 33 30 28 24 21 20 20 20 21 23 24 25 26 29 32 35 37 40 42 43 44 46 46 47 48 50 52 54 54 53 54 55 56 57 59 61 64 69 72 74 76
33 34 35 30 25 22 22 19 19 19 21 22 23 24 26 29 32 35 37 40 42 44 46 47 48 48 50 51 53 54 54 55 55 57 58 59 60 62 66 70 73 75 77 79
33 32 31 28 22 19 19 20 22 22 23 25 27 29 31 33 36 38 40 43 45 47 48 49 50 51 52 54 55 55 55 56 58 59 60 62 64 67 70 73 76 78 79 81
36 31 27 26 26 25 24 24 24 26 27 30 32 33 36 38 40 42 44 46 48 49 50 51 52 53 54 56 56 56 57 59 60 61 62 64 67 70 73 75 77 79 80 80

GFSCGP_500_spd_048.txt.gz
Wind_Speed
11 12 10 9 12 12 11 11 9 7 7 12 10 14 14 10 7 5 4 6 9 11 12 13 12 11 11 11 9 9 7 6 6 8 10 9 11 10 10 8 10 14 16 20
11 10 12 12 13 13 12 13 11 12 8 15 13 11 14 12 8 7 6 5 6 8 9 11 13 12 11 10 9 7 6 5 6 9 9 10 9 10 11 12 15 18 22 25
10 9 12 10 13 16 14 15 13 15 14 11 12 13 8 7 7 8 7 6 4 6 8 10 11 11 9 8 8 7 6 8 8 10 11 10 9 11 14 18 21 23 28 32
12 10 11 9 11 17 17 17 17 17 17 13 11 10 11 12 11 11 8 5 5 6 7 8 9 8 8 10 10 10 9 11 11 12 13 11 11 14 19 23 23 31 32 35
14 14 11 9 10 13 17 19 17 23 21 14 14 11 8 10 12 10 13 12 13 16 15 13 13 13 13 15 14 12 13 12 12 14 12 13 15 18 22 25 30 32 39 42
15 15 13 12 9 10 18 15 19 19 18 15 13 11 2 3 7 11 15 20 18 18 18 18 18 14 14 17 17 16 14 14 13 11 13 16 19 22 24 29 31 41 42 45
19 15 13 13 13 10 14 16 15 17 18 16 16 15 4 8 6 11 7 9 9 15 17 21 21 20 19 19 16 15 12 12 14 15 15 20 23 26 30 32 35 43 45 49
21 16 17 13 12 13 20 18 19 20 18 16 17 15 8 13 10 9 11 15 16 15 16 18 21 17 15 13 12 13 12 14 15 16 20 24 28 31 34 36 41 41 44 45
20 20 20 15 19 16 21 23 22 23 20 18 17 17 13 12 17 14 11 13 17 12 11 10 10 12 12 10 12 15 14 16 18 21 25 29 30 34 33 34 38 41 46 50
19 21 21 17 17 18 20 19 21 19 20 18 19 21 20 17 19 18 18 16 16 15 13 11 10 12 14 13 14 17 19 21 23 27 30 32 32 31 31 35 39 43 47 54
19 24 24 21 19 22 23 22 21 20 22 24 22 17 20 20 17 19 17 18 18 19 16 15 14 15 16 17 20 21 24 27 30 32 34 34 34 34 32 36 40 44 52 55
18 24 27 23 24 27 27 27 27 26 26 25 27 20 19 20 21 18 18 16 18 19 20 19 19 19 20 24 26 26 30 32 33 35 36 37 39 37 37 38 47 49 57 60
20 22 25 26 28 27 30 27 21 22 30 30 28 11 14 17 20 22 24 24 22 23 21 22 24 26 28 29 30 31 32 33 35 37 34 37 37 39 46 52 54 56 60 65
23 24 25 26 22 24 28 28 29 24 22 21 19 17 19 22 22 25 28 26 24 20 22 26 28 29 30 33 35 35 33 33 35 36 38 39 47 43 48 47 51 56 59 62
26 23 21 22 26 29 30 30 28 28 23 23 17 23 18 22 24 25 27 28 25 22 22 23 25 30 33 34 33 33 33 33 34 38 38 43 42 44 47 51 53 57 59 60
29 24 23 24 24 25 26 28 27 30 27 25 27 24 25 26 28 26 26 26 24 25 26 26 28 32 32 33 34 33 34 37 39 42 43 45 46 47 51 54 56 58 59 60
28 25 25 26 26 25 26 23 24 26 26 28 30 25 28 27 27 26 27 27 27 27 27 29 32 33 34 34 34 36 39 42 44 47 48 49 49 51 53 56 58 58 59 57
29 28 27 28 27 29 21 21 25 29 30 32 32 31 30 31 29 28 28 28 28 30 30 31 32 32 33 34 37 40 43 45 47 48 49 49 51 53 56 58 59 57 53 59
32 29 31 31 28 27 23 20 26 28 27 29 31 31 32 31 30 28 28 29 29 29 30 32 32 33 35 38 40 43 45 47 49 49 50 51 54 56 58 57 55 57 55 61
34 33 35 31 29 28 24 24 27 30 29 25 27 27 28 26 27 28 30 30 30 30 31 32 33 36 38 41 43 46 48 49 49 50 52 53 55 57 55 54 56 58 60 62
33 33 34 29 30 30 29 29 30 33 22 27 26 26 25 27 29 29 30 30 30 30 31 33 36 39 41 43 45 47 47 48 50 52 53 54 55 55 55 56 59 61 62 63
34 33 31 30 31 30 28 31 31 28 29 27 27 27 28 28 28 28 28 28 29 30 33 36 39 41 43 44 46 47 48 50 52 53 54 55 56 57 58 60 61 63 65 67
35 32 33 34 28 30 29 29 30 29 27 25 24 24 24 24 23 24 26 27 30 33 36 38 40 42 44 46 48 50 51 52 53 55 55 57 57 58 60 62 63 65 68 72
29 31 35 31 29 29 28 29 28 28 27 25 23 21 20 22 23 26 28 30 33 36 38 40 42 45 47 50 51 52 53 54 55 56 58 58 58 62 64 65 66 69 72 76
33 31 33 32 27 25 25 26 27 26 24 22 22 22 23 25 28 30 32 35 37 39 41 44 46 48 50 52 53 54 55 56 57 59 58 60 63 65 65 67 69 72 76 80
35 31 32 29 25 29 27 27 24 24 26 25 25 26 28 30 32 35 37 38 41 44 45 47 50 52 53 54 54 56 56 58 58 58 61 65 67 67 67 68 70 74 77 80

GFSCGP_500_spd_051.txt.gz
Wind_Speed
10 8 6 6 9 6 6 6 4 12 4 5 8 13 13 12 9 8 6 9 10 11 10 10 11 12 12 12 10 9 9 9 9 9 10 9 11 11 12 11 9 11 13 12
12 8 7 6 9 12 8 9 8 6 7 10 14 13 11 10 10 7 8 9 8 10 11 11 11 11 12 11 11 12 11 10 8 9 10 11 12 12 12 11 13 14 16 17
13 10 9 9 8 12 12 12 13 10 10 10 13 11 11 9 7 8 7 6 7 7 9 11 11 11 11 13 14 12 9 8 9 10 12 13 13 13 13 16 17 19 21 25
13 12 11 8 5 10 10 11 14 12 9 12 11 9 10 12 12 10 9 6 7 7 8 8 9 12 13 13 13 12 12 12 13 15 15 15 12 13 16 19 20 24 29 31
15 14 11 9 3 4 11 16 16 15 14 12 9 10 8 12 10 10 12 7 8 11 12 13 13 15 14 16 16 14 14 13 14 15 16 15 14 15 18 22 22 24 30 34
12 14 12 10 11 8 12 16 18 15 15 14 13 11 5 7 12 13 17 19 15 17 18 17 18 17 15 17 18 18 18 16 17 17 18 18 17 19 21 23 25 29 31 33
15 17 15 10 15 9 12 17 16 14 14 13 14 12 4 10 6 12 17 16 17 20 21 20 20 21 22 21 21 19 17 16 15 16 16 20 21 23 24 28 29 30 31 32
16 17 17 15 15 14 14 16 18 16 13 11 12 9 9 10 13 7 14 11 11 11 16 20 22 26 26 25 21 17 15 18 16 18 22 22 22 24 28 29 30 28 29 33
15 17 19 20 19 18 17 18 19 20 17 16 13 11 9 11 11 13 13 11 10 11 16 23 24 24 25 22 16 15 15 16 16 16 22 25 28 28 29 29 29 29 32 36
17 19 22 22 22 21 21 23 23 22 20 20 17 12 11 14 14 16 15 15 14 15 14 14 15 14 15 17 16 17 18 18 20 24 27 29 29 29 30 31 32 32 32 37
19 18 23 24 21 22 21 22 22 22 24 22 19 16 11 12 17 16 17 17 15 14 15 15 16 17 17 17 18 21 23 24 27 29 30 27 30 32 33 35 35 34 36 43
19 20 21 22 23 22 24 25 26 27 24 23 23 18 15 17 19 18 18 18 17 17 18 17 19 19 20 21 23 25 27 29 31 32 31 34 33 34 35 36 38 37 44 51
19 18 19 25 27 24 23 28 30 28 26 23 22 19 17 15 16 19 20 20 19 18 21 24 26 26 27 27 28 30 31 32 33 35 35 35 35 33 38 39 41 47 50 52
24 20 20 19 19 22 24 23 27 31 31 26 19 15 15 19 18 20 21 22 22 21 20 23 28 32 33 33 33 33 33 32 33 34 35 35 35 38 39 45 42 49 51 50
27 21 20 20 23 26 27 30 30 31 31 32 28 26 20 21 18 22 23 21 21 22 24 24 25 29 30 31 32 34 35 35 36 35 35 36 39 40 41 43 46 48 49 52
30 25 23 22 22 24 26 27 29 30 29 31 30 24 23 22 24 25 27 26 23 23 23 24 27 28 28 30 31 32 33 34 35 35 37 39 40 42 45 47 48 48 51 54
31 28 25 23 23 25 26 22 19 22 23 23 23 21 24 25 27 27 27 26 25 25 25 26 27 28 29 30 31 32 33 34 35 38 40 42 44 46 48 49 50 53 54 57
32 29 27 28 26 28 13 17 20 18 21 24 24 25 28 29 29 30 31 30 28 26 26 27 27 28 28 29 31 32 33 36 38 40 42 45 47 48 50 51 54 54 57 58
31 27 33 35 31 27 20 16 18 22 15 23 23 28 29 28 29 30 31 31 29 27 26 26 26 26 28 28 30 33 36 38 40 42 45 47 49 50 52 54 55 58 59 61
34 29 32 34 36 29 16 18 20 22 11 19 26 31 30 30 30 28 29 29 28 26 24 24 27 28 28 30 33 35 37 40 43 45 47 49 51 53 55 56 57 58 60 60
36 33 34 33 35 29 21 21 22 23 22 22 26 29 30 29 29 28 27 25 25 24 26 27 27 28 30 32 34 37 40 42 44 47 49 52 53 55 56 57 58 59 59 61
36 36 34 33 35 34 21 25 26 22 22 24 25 27 28 29 26 25 24 23 23 25 25 26 28 30 32 35 37 40 43 44 47 49 51 52 54 55 56 58 58 58 61 65
41 33 33 34 32 30 26 26 25 24 24 25 25 26 25 25 22 21 20 21 22 23 26 28 30 33 36 39 41 43 45 48 50 52 54 54 55 56 57 56 58 63 66 68
37 37 35 34 29 29 28 28 28 27 24 25 26 24 25 22 20 20 21 22 25 27 30 33 35 38 40 43 45 47 49 52 55 55 55 56 57 57 55 58 63 67 69 71
41 42 38 32 28 28 28 29 31 26 25 24 24 21 21 22 24 24 26 28 30 32 34 37 40 43 45 48 50 52 54 56 57 57 58 59 57 54 58 63 68 71 73 74
41 41 36 28 24 28 28 30 30 25 25 23 23 25 26 26 28 29 32 33 35 37 39 42 45 47 49 52 54 56 57 57 58 59 60 59 55 58 63 69 72 73 73 74

GFSCGP_500_spd_054.txt.gz
Wind_Speed
14 12 8 7 8 6 7 4 7 12 10 3 4 9 11 8 8 5 8 5 9 12 10 10 9 8 9 8 6 5 8 9 10 10 8 10 11 12 13 14 16 12 13 12
13 11 8 7 7 8 8 8 10 6 7 5 7 7 13 10 9 7 4 8 9 9 8 10 10 9 8 8 8 8 8 8 8 9 11 12 12 12 13 14 16 16 12 16
12 13 9 6 8 9 8 9 11 9 7 11 7 7 11 9 9 4 7 4 4 6 8 9 10 10 10 11 10 9 8 8 9 11 12 12 14 12 11 13 16 15 19 20
13 14 10 7 6 6 10 12 14 14 10 8 11 7 14 12 11 10 10 7 8 9 9 8 9 11 11 11 12 13 13 12 12 12 14 14 14 14 14 14 18 20 21 23
14 15 10 9 7 6 8 13 16 12 8 7 9 8 8 5 9 15 13 11 11 12 12 11 12 13 13 13 14 14 15 15 16 15 17 19 17 17 16 15 17 23 25 25
16 15 11 11 9 11 6 11 13 13 13 13 14 12 9 10 10 13 15 17 16 13 12 13 18 17 15 16 17 17 17 17 18 17 18 21 22 21 20 21 21 25 29 31
14 16 14 14 10 12 11 12 14 13 14 11 11 13 11 12 12 12 15 21 21 20 20 21 18 18 18 19 21 20 19 20 19 18 17 20 21 27 25 25 24 29 32 34
16 18 14 15 15 15 16 14 14 12 11 10 10 10 10 13 10 13 11 18 20 19 17 14 18 23 23 22 22 22 22 20 18 19 20 20 22 22 19 25 29 31 32 31
18 19 16 18 20 17 19 21 18 19 17 15 13 10 12 8 8 9 14 14 16 13 13 17 20 21 25 25 25 24 21 19 19 21 20 22 24 26 29 32 33 33 35 34
19 22 20 20 21 22 21 23 20 20 18 18 15 13 11 16 13 12 14 16 17 15 15 15 17 18 20 20 18 18 20 19 20 22 24 26 29 33 36 35 37 37 34 31
22 22 21 21 20 23 23 26 26 23 24 19 17 13 15 16 15 14 14 15 19 19 17 17 17 18 18 18 18 20 21 22 24 25 27 29 33 34 35 39 36 35 34 35
21 24 23 21 21 26 25 24 26 26 23 26 22 18 16 16 19 23 19 17 18 19 19 19 20 19 18 19 22 23 24 26 29 30 32 35 36 38 38 39 37 37 38 38
23 27 24 24 24 26 26 22 24 27 29 25 24 21 20 20 22 21 20 18 17 19 21 22 24 24 25 25 26 26 27 30 33 34 35 36 38 39 41 40 38 40 42 46
30 30 24 24 19 20 25 23 23 26 32 28 27 23 23 22 23 23 21 21 19 19 19 22 25 28 30 32 34 33 34 36 37 36 37 38 39 40 40 41 41 42 44 46
34 33 26 23 23 26 28 28 28 30 28 29 25 26 25 27 27 25 24 23 24 24 22 22 25 29 31 33 34 34 34 35 36 37 37 38 38 38 38 39 41 43 44 46
35 33 28 25 23 26 28 28 31 31 29 27 30 28 25 25 26 26 24 25 26 27 29 26 25 27 30 31 31 31 32 33 34 35 36 35 36 36 38 40 43 44 46 50
36 36 29 25 24 26 28 26 28 23 22 23 24 20 20 22 23 25 27 28 29 29 28 28 28 27 28 30 30 31 31 31 32 33 34 35 37 38 41 43 46 48 50 53
36 35 31 30 27 34 19 20 23 22 21 21 20 18 21 22 24 26 29 31 33 33 32 29 30 30 31 31 31 31 32 32 32 33 35 37 39 42 43 45 48 51 54 56
35 37 35 34 29 28 25 21 21 20 19 20 21 22 23 24 26 27 30 31 33 34 33 30 29 28 28 26 28 30 30 31 32 35 37 39 41 43 46 49 52 54 56 57
39 35 36 34 34 32 18 22 22 25 14 18 22 20 20 23 24 25 27 27 30 30 30 28 27 25 25 27 29 29 30 33 35 36 39 42 44 47 51 53 55 56 57 58
44 41 39 32 33 29 20 22 25 31 12 24 23 23 23 23 25 24 24 24 24 25 25 25 25 26 27 28 28 30 33 35 37 40 42 45 48 52 54 56 57 57 58 59
38 40 38 35 35 31 16 21 26 24 27 27 27 25 23 23 23 21 21 21 21 22 23 24 25 25 26 28 31 33 36 38 41 44 47 49 52 55 57 58 58 59 59 56
45 44 40 40 36 29 24 23 26 29 31 30 29 25 25 23 22 21 20 20 21 22 22 23 25 27 30 32 35 37 39 43 46 49 51 54 56 58 58 58 59 61 59 57
47 45 43 39 31 28 22 21 23 28 31 35 30 28 27 24 24 22 21 21 22 23 25 27 29 31 34 37 39 42 45 48 50 53 55 57 58 59 59 60 63 62 59 61
44 44 42 37 31 29 24 22 27 29 33 32 31 30 28 26 24 24 24 25 26 28 30 32 34 37 39 41 44 47 49 52 54 57 59 60 61 61 62 64 63 60 61 65
36 40 48 40 31 31 29 28 34 32 31 32 32 31 29 28 28 29 29 29 31 33 35 37 39 41 43 46 49 52 55 58 59 60 61 62 62 62 65 63 61 63 67 71

GFSCGP_500_spd_057.txt.gz
Wind_Speed
18 15 11 6 11 10 10 15 9 19 10 4 7 3 16 12 16 11 7 8 2 9 8 7 9 9 6 4 2 3 5 4 6 6 7 7 7 7 8 9 11 14 15 15
16 14 12 9 10 8 10 11 8 12 17 12 6 6 11 19 15 10 2 3 4 4 1 5 5 5 3 2 3 4 2 0 1 1 2 4 6 8 10 11 15 15 15 18
15 16 12 8 8 8 11 14 12 16 11 13 9 5 19 12 11 2 5 4 4 4 5 4 3 4 5 6 7 8 7 6 5 6 7 8 10 10 11 12 14 16 17 18
17 16 14 11 9 8 10 13 20 21 14 10 20 13 9 10 20 8 7 8 8 7 6 6 5 7 8 8 9 9 9 9 10 11 11 11 12 12 15 15 14 15 18 22
16 16 15 12 12 10 9 13 13 18 14 13 9 10 12 9 8 13 15 8 12 10 9 8 9 11 10 9 10 10 11 12 12 13 14 16 17 19 17 17 18 18 19 21
22 17 17 13 13 12 12 7 9 12 12 14 12 10 20 13 7 11 18 13 15 15 12 11 11 12 12 13 13 14 14 15 15 16 18 19 21 23 22 22 22 23 21 24
23 17 18 15 14 12 14 11 6 14 13 12 14 16 15 7 15 16 15 14 18 17 15 15 18 18 14 16 18 19 17 16 17 18 17 19 20 22 23 26 29 29 25 28
23 23 18 12 14 15 16 15 14 13 10 13 17 12 11 23 18 15 15 12 16 18 18 17 15 15 15 18 20 20 20 21 19 17 16 26 20 18 21 21 17 24 29 32
26 23 21 18 16 22 15 20 11 18 17 17 11 9 16 16 15 14 14 16 16 15 16 16 17 16 17 20 20 21 19 19 19 19 20 23 19 22 24 26 29 33 34 35
31 23 26 21 20 22 24 19 22 23 19 17 12 16 15 18 18 16 16 17 19 18 19 19 18 16 17 18 18 17 17 18 18 19 22 24 23 25 27 31 34 35 39 40
34 29 30 27 20 19 24 25 22 18 20 19 15 10 19 21 23 17 16 16 19 22 23 22 21 22 20 20 18 16 19 20 21 23 24 25 28 29 33 36 37 39 40 42
35 31 30 24 21 21 21 21 27 24 21 26 25 20 16 19 21 20 19 21 22 22 24 24 23 22 21 19 20 20 21 23 25 26 27 28 32 35 37 38 40 41 42 41
38 41 32 24 24 23 23 24 22 22 24 30 23 18 15 22 20 22 25 28 20 20 24 25 25 26 25 24 24 24 24 27 28 30 31 34 37 39 41 41 43 44 43 44
38 39 35 29 19 18 19 24 24 28 30 26 27 22 19 20 22 22 22 21 22 19 21 22 24 27 29 31 31 31 32 33 35 35 37 40 41 41 41 43 44 45 44 45
40 41 36 31 27 21 19 21 25 27 28 28 24 21 20 21 21 21 23 25 25 24 25 26 25 24 27 32 35 33 36 36 37 38 40 41 42 42 43 43 43 44 43 44
42 42 38 33 30 29 28 27 26 25 28 31 26 23 27 28 28 31 29 29 27 26 27 27 28 30 30 31 32 33 33 32 35 37 37 38 39 40 40 40 41 42 43 45
45 46 37 36 30 26 34 29 27 26 28 26 28 26 20 27 26 28 29 26 28 29 30 31 33 31 31 31 32 33 33 33 33 33 34 36 37 37 38 39 41 43 46 49
46 42 40 38 36 40 26 26 22 27 24 26 26 24 23 23 27 27 25 28 27 29 32 35 36 36 34 34 35 35 35 35 34 35 36 35 36 38 39 41 44 46 49 52
45 43 42 42 38 36 29 30 23 21 22 23 25 24 24 29 22 27 29 29 30 30 31 33 36 38 37 37 36 35 35 34 35 35 35 36 37 39 41 44 47 50 52 56
46 45 42 41 41 41 26 24 22 24 28 23 26 29 28 29 26 26 25 30 29 29 29 29 32 34 34 34 33 33 33 33 34 34 35 37 39 42 44 47 50 53 56 59
42 50 46 41 41 37 26 22 23 30 5 19 26 29 29 30 26 25 28 29 28 29 28 28 28 29 29 30 32 32 32 32 33 35 38 40 43 46 49 51 54 57 60 61
48 46 45 38 39 39 26 20 25 16 23 33 33 33 31 32 30 30 29 28 29 28 26 25 25 27 29 30 31 31 32 33 36 39 42 44 47 50 53 56 59 61 62 63
49 49 46 41 39 36 28 26 24 24 24 28 32 36 38 33 33 33 30 30 30 30 28 26 26 28 28 29 30 32 34 37 40 43 45 48 51 53 57 60 61 62 63 63
47 46 47 42 37 38 33 32 30 28 29 29 29 35 36 34 35 34 33 32 32 32 31 29 29 30 31 32 34 36 39 42 44 46 49 51 55 59 61 61 62 64 63 63
44 45 45 46 41 38 43 33 31 34 36 36 33 35 33 34 35 35 35 34 33 33 32 32 33 34 36 37 38 41 43 45 47 50 53 57 59 60 62 63 65 63 65 67
39 38 38 40 38 41 43 42 34 35 36 35 31 31 33 34 35 34 34 34 34 34 36 37 37 39 39 41 42 45 46 48 51 54 57 59 61 62 63 65 64 65 66 67

GFSCGP_500_spd_060.txt.gz
Wind_Speed
32 19 12 14 16 12 14 17 10 20 16 18 16 1 17 21 12 18 20 9 8 9 8 9 8 9 8 10 11 12 11 12 11 11 12 14 14 9 7 4 3 2 6 10
31 16 14 11 12 11 12 10 13 14 21 12 10 7 14 19 13 17 12 7 6 8 7 7 7 7 8 7 8 9 10 9 10 10 9 8 5 3 3 4 4 6 11 11
31 16 14 11 12 12 12 11 11 15 20 7 14 8 11 16 17 15 12 4 4 1 3 5 4 4 4 6 6 7 9 11 11 10 10 10 8 6 4 5 7 8 12 13
29 17 14 13 14 15 11 7 11 21 23 11 17 15 18 15 15 13 7 13 3 3 3 4 4 4 4 5 5 6 8 7 8 10 11 10 8 6 7 8 10 11 11 13
23 18 18 16 14 17 10 12 13 20 25 19 11 21 13 13 8 11 17 8 12 5 5 5 5 4 6 5 6 6 7 9 10 12 12 13 13 13 12 11 12 13 15 16
27 22 23 18 18 18 16 11 10 13 18 15 11 18 13 20 10 13 17 14 18 8 6 6 6 6 10 8 9 9 10 11 11 10 12 15 16 16 15 14 15 19 19 20
31 28 23 21 20 18 16 14 10 12 14 6 5 16 20 24 12 12 5 22 19 14 8 10 10 9 8 6 10 12 12 12 12 11 13 16 16 16 16 13 11 17 10 13
33 32 23 20 19 18 18 16 16 14 12 14 17 18 13 20 13 11 15 17 22 17 12 9 9 7 10 10 10 12 13 12 12 13 15 14 19 17 16 11 16 19 19 19
35 31 25 27 22 24 20 20 12 15 20 17 9 7 11 20 22 15 17 16 15 17 18 15 14 14 15 17 15 14 15 14 13 15 17 17 17 16 18 19 19 22 25 25
35 26 26 19 25 26 27 16 21 24 24 18 17 9 25 18 21 16 19 19 18 17 16 18 19 22 21 19 17 15 14 14 15 18 19 20 32 19 24 25 22 27 30 30
34 25 22 30 33 25 21 27 26 24 27 23 15 20 23 12 19 22 18 22 19 19 17 19 23 26 25 25 23 18 18 19 17 19 23 23 25 27 26 27 31 33 34 35
39 36 31 34 29 26 25 19 26 28 26 23 23 23 19 17 19 23 19 23 22 18 21 23 25 26 29 26 25 21 20 23 24 26 26 28 26 30 29 32 34 38 39 39
41 46 33 34 33 33 27 29 24 25 28 30 26 22 23 30 24 27 25 25 23 19 18 19 22 25 26 28 26 22 27 27 29 28 30 30 32 32 35 38 39 40 41 42
39 46 48 45 29 23 24 28 28 19 25 29 30 24 25 20 23 21 23 24 24 14 16 18 21 23 26 28 31 32 34 33 32 32 33 36 36 39 41 42 42 43 43 44
48 49 49 44 36 28 24 21 27 29 31 34 26 29 27 19 25 26 29 28 26 27 27 25 23 25 26 28 27 29 34 36 36 36 36 38 38 39 40 41 42 43 43 43
50 51 49 47 42 35 34 26 24 22 28 31 24 21 20 22 22 26 30 34 30 29 31 29 30 26 25 26 27 30 30 32 33 34 35 37 35 37 39 39 41 42 42 43
48 50 44 50 44 40 44 32 31 26 24 23 26 27 29 26 29 33 31 37 34 30 27 29 32 34 28 28 26 29 31 32 33 34 34 36 38 37 37 38 38 39 40 42
42 52 49 43 41 49 42 39 40 41 36 34 34 33 28 27 29 32 31 33 26 23 25 29 34 36 38 38 36 33 34 35 35 36 38 38 36 36 37 37 38 40 42 44
48 56 54 50 48 45 44 35 39 32 30 25 28 27 23 19 30 36 29 24 29 26 29 32 34 35 38 38 38 37 37 38 38 38 38 38 38 39 38 39 41 43 45 48
44 49 48 42 48 46 38 36 34 32 34 22 24 24 28 34 39 29 27 28 30 32 32 33 35 36 36 37 37 37 37 37 37 38 38 39 40 39 40 41 43 46 48 51
48 47 51 51 46 37 36 34 33 35 18 19 26 26 27 36 37 29 32 32 30 31 33 34 35 35 34 35 36 35 34 35 37 38 38 39 39 41 42 44 46 48 51 55
49 40 46 47 48 46 37 29 39 28 16 22 25 26 32 35 34 32 31 32 34 34 34 34 34 34 33 32 32 32 33 35 36 38 38 39 41 42 44 47 49 52 55 59
48 46 43 47 47 42 38 32 31 28 32 31 25 21 35 40 37 38 35 36 37 38 38 36 35 35 34 34 33 33 33 35 36 37 40 42 44 46 48 50 53 55 58 60
47 43 46 38 43 41 34 37 34 38 34 26 32 37 36 38 33 36 36 39 38 38 38 38 36 37 36 36 36 35 36 37 39 41 44 46 48 50 52 54 56 58 59 60
39 37 43 45 43 45 37 42 26 36 35 39 37 38 40 40 32 32 33 34 37 39 39 38 37 38 37 37 38 40 42 43 44 46 47 49 52 55 56 57 58 58 58 60
40 40 43 43 38 40 38 36 42 39 42 40 40 40 45 41 36 37 34 33 35 37 38 39 40 39 39 41 43 45 45 47 48 50 52 56 59 61 62 62 58 57 59 62

GFSCGP_500_spd_063.txt.gz
Wind_Speed
25 23 19 17 18 16 11 10 12 16 17 14 17 17 16 14 13 15 20 17 15 16 4 2 2 2 10 11 14 14 15 20 18 16 18 20 18 18 18 17 13 11 9 5
28 17 18 19 19 22 7 9 8 13 14 12 13 8 16 18 11 12 19 13 10 6 9 6 8 7 8 7 10 13 14 14 14 15 14 11 11 12 10 10 9 6 4 6
28 15 24 21 18 23 7 8 9 22 19 14 12 6 12 19 22 13 9 8 5 3 6 4 3 6 4 5 7 9 10 10 11 12 12 10 9 10 7 5 4 4 3 6
34 20 24 22 17 19 11 12 14 24 22 19 19 12 10 19 19 9 3 5 6 2 1 1 2 4 4 4 5 6 8 9 9 8 7 7 7 8 3 1 3 4 3 5
26 24 23 21 17 17 12 16 15 17 23 21 21 21 8 19 10 14 10 11 5 4 3 1 1 5 2 2 3 5 6 7 6 5 5 5 5 4 2 2 3 6 6 9
35 27 27 21 20 22 18 19 18 17 17 14 12 25 13 12 12 17 17 10 5 10 7 4 3 3 4 5 4 3 4 4 4 5 6 7 9 8 6 6 6 7 10 12
33 29 28 26 29 25 22 20 19 18 13 7 18 24 13 13 14 19 12 12 10 5 10 7 8 8 4 4 5 5 5 6 8 8 9 8 9 8 6 7 8 6 7 7
37 33 25 24 30 22 20 16 21 22 16 12 16 13 11 12 16 10 12 15 13 6 2 8 10 8 8 7 7 10 11 12 13 13 13 12 12 10 9 11 9 11 12 11
37 34 24 28 25 26 21 25 13 21 25 15 13 13 13 16 17 16 13 13 13 11 10 5 13 13 13 11 12 15 16 16 16 16 14 15 15 17 14 15 18 20 19 16
35 35 28 29 30 31 30 21 24 26 25 22 16 15 17 21 15 13 15 14 15 17 18 15 10 10 14 15 18 20 18 18 20 20 18 18 17 16 21 22 23 28 29 21
31 36 28 28 38 35 31 29 31 28 28 27 20 20 24 21 20 24 19 16 16 15 17 22 20 17 13 14 19 21 24 22 22 24 21 20 22 24 27 27 25 21 20 27
33 36 35 34 37 32 32 25 28 33 26 27 27 26 24 21 22 21 13 13 18 15 15 19 23 19 13 12 17 20 23 28 28 24 26 28 34 25 28 32 16 24 30 31
34 38 40 38 41 39 35 32 29 32 32 35 33 25 23 26 22 24 21 24 27 24 20 20 22 20 20 19 22 25 28 34 37 26 17 25 26 29 26 31 32 35 34 34
32 36 41 43 42 38 41 32 34 30 32 28 30 24 23 25 24 20 23 21 22 24 21 17 13 16 21 25 26 26 25 26 26 20 23 27 29 30 30 34 37 37 35 34
38 44 41 41 44 41 35 33 27 30 35 35 22 19 23 33 28 26 23 30 30 23 23 20 21 23 22 25 27 28 28 30 28 26 28 30 30 33 34 35 36 33 35 36
42 46 44 44 47 45 43 32 31 29 29 36 35 23 22 25 30 28 35 35 35 23 26 29 29 25 23 25 25 28 30 31 32 33 32 31 32 32 34 34 35 36 37 38
48 47 47 47 46 52 52 49 37 34 29 28 27 27 26 22 23 28 34 38 37 38 31 35 36 30 21 16 23 26 29 31 32 34 35 34 33 34 34 36 38 39 39 39
52 52 56 51 47 52 48 49 46 38 38 33 27 29 29 28 26 32 36 39 37 34 25 22 31 28 23 22 23 29 31 33 34 34 35 35 35 36 37 38 39 38 38 38
41 40 52 51 52 49 47 46 48 41 37 37 34 34 34 34 34 38 36 39 36 31 28 23 26 30 31 31 31 34 36 36 36 35 36 37 38 40 39 39 39 40 40 41
22 48 45 48 47 46 45 42 42 45 49 42 40 39 41 40 43 40 36 34 32 30 30 29 30 30 31 33 34 35 36 37 37 37 38 39 40 40 41 41 42 43 42 44
25 43 47 49 44 39 41 38 39 50 39 25 36 32 36 36 37 38 40 40 34 32 33 34 33 33 33 33 34 35 35 36 36 38 38 40 40 41 41 43 44 44 45 48
25 37 34 36 43 47 34 40 47 36 33 33 32 32 34 37 38 41 39 36 36 34 35 36 37 37 37 36 36 36 35 35 35 36 38 38 40 41 43 44 44 46 49 52
38 33 39 38 45 45 45 41 36 36 40 38 39 43 35 34 34 34 35 38 35 34 38 38 38 39 40 41 38 37 37 36 36 38 39 40 41 42 44 46 48 50 53 56
56 39 41 38 46 43 49 48 42 41 33 40 35 42 37 33 40 40 33 33 35 37 39 40 40 40 40 40 40 39 38 39 40 40 41 41 42 46 49 51 53 55 55 58
54 57 51 42 36 38 42 46 46 44 45 39 45 48 49 45 43 40 33 36 35 36 38 37 37 38 40 39 38 39 39 41 42 43 43 44 47 49 52 54 54 61 62 62
41 44 50 40 16 27 36 38 42 47 26 37 45 45 45 46 45 42 44 44 41 41 41 39 37 38 37 37 39 39 40 42 45 46 47 48 53 54 55 58 64 68 68 65

GFSCGP_500_spd_066.txt.gz
Wind_Speed
27 23 14 16 22 20 20 19 17 23 14 14 14 16 13 5 2 12 11 9 10 9 10 8 10 8 7 7 2 4 4 4 10 9 13 20 21 19 15 15 19 20 20 19
30 17 19 21 24 23 20 17 18 23 18 16 15 11 13 6 3 9 8 2 2 3 9 10 9 8 8 8 9 11 13 15 15 12 9 8 12 13 15 19 19 17 18 18
31 18 28 24 23 23 18 16 20 22 21 21 18 10 17 16 10 4 3 4 0 3 3 4 7 7 5 8 8 8 11 13 12 11 10 11 10 11 12 10 11 12 14 14
36 23 27 26 21 23 18 16 21 20 23 23 21 15 17 16 9 5 4 2 1 2 2 2 2 4 6 7 9 7 8 8 9 10 10 12 11 10 9 9 8 9 10 10
30 25 27 28 16 25 14 22 23 21 23 22 18 24 18 20 15 7 5 5 7 5 2 6 7 5 4 5 6 7 6 4 5 6 7 8 7 6 6 6 8 9 9 11
34 30 32 27 24 23 23 26 24 23 24 19 14 26 19 21 17 9 5 5 7 8 7 6 10 6 5 4 4 4 4 5 7 6 6 8 6 6 7 10 10 10 13 13
32 29 29 31 29 27 31 27 24 25 24 10 16 16 14 19 19 17 5 5 6 4 6 8 10 8 6 6 4 5 6 6 6 5 6 7 8 7 7 8 10 10 12 16
34 33 31 27 27 27 32 27 26 27 25 18 20 15 12 18 18 18 8 6 4 7 5 5 8 10 9 7 7 7 9 10 10 10 12 10 10 6 7 7 9 11 14 13
30 32 26 31 29 27 31 31 17 27 29 27 24 20 22 17 17 17 12 12 8 8 4 4 9 12 13 11 12 13 15 16 15 15 17 15 14 12 15 15 14 18 17 23
32 34 27 29 31 33 35 25 30 34 32 29 23 20 22 17 13 15 14 10 9 10 8 9 7 10 11 13 15 16 17 17 19 19 18 16 19 21 19 22 23 21 22 24
35 34 31 33 39 36 34 34 37 34 37 32 24 24 22 22 18 16 19 16 17 15 14 13 12 11 13 16 16 17 18 21 22 24 24 26 25 25 27 28 26 26 27 26
40 33 37 35 35 36 35 39 34 35 36 33 30 26 24 24 25 23 22 21 19 19 18 16 14 14 15 14 14 15 20 26 26 28 31 30 33 32 31 35 36 36 43 19
39 42 41 39 39 40 43 40 41 36 37 39 36 29 22 26 29 25 22 18 20 17 20 26 23 16 15 16 16 18 22 25 28 28 35 31 34 45 24 24 24 25 22 25
41 48 47 44 38 39 41 36 39 40 44 38 36 31 29 25 30 27 27 28 30 22 13 18 23 20 16 16 19 20 22 24 29 25 21 26 28 18 23 21 25 27 25 26
39 43 45 46 41 39 42 39 42 44 44 42 32 31 24 28 31 29 30 28 31 29 18 16 25 21 23 25 25 26 26 26 24 24 23 23 24 27 25 24 28 29 30 29
45 42 44 46 42 39 45 48 43 42 42 43 38 37 25 26 27 38 35 32 31 33 34 27 28 26 24 27 31 32 28 25 26 26 27 27 26 28 25 28 31 32 33 33
37 40 43 46 43 40 50 49 47 44 43 44 45 36 29 39 26 30 35 37 41 37 36 34 29 28 31 35 31 28 27 28 25 29 31 32 34 31 30 34 35 37 37 38
55 35 50 46 42 49 43 44 47 49 44 38 38 33 28 34 35 30 30 32 37 35 36 33 29 24 23 19 20 21 25 28 30 30 31 33 33 34 37 39 39 39 40 40
62 58 33 49 51 49 49 46 45 47 49 40 40 37 34 30 31 34 30 32 34 34 36 30 29 24 21 23 24 25 26 29 30 32 33 34 35 36 39 41 42 43 43 42
68 56 48 31 39 58 47 53 44 47 51 49 45 44 36 34 36 38 37 36 39 37 39 30 24 26 24 23 26 28 29 31 32 32 33 35 36 37 38 40 42 43 43 43
60 60 61 44 40 47 47 50 50 49 42 48 50 52 42 43 41 38 40 42 44 45 41 32 33 34 31 31 32 32 33 33 33 34 35 35 36 37 39 41 43 43 44 46
52 50 55 56 35 50 51 43 43 42 47 45 46 52 48 44 46 42 40 42 41 45 41 39 38 38 37 37 36 38 39 38 38 39 39 39 39 40 41 43 43 45 47 48
53 46 36 47 23 26 46 42 39 36 35 39 38 49 47 48 41 43 40 42 43 44 42 36 35 37 39 41 42 42 40 39 39 39 40 42 43 44 44 44 45 47 48 51
49 49 32 48 23 14 23 37 31 36 33 34 40 43 44 50 46 41 39 38 39 42 40 40 41 39 39 40 43 43 42 42 41 40 41 42 43 45 46 47 49 50 52 54
42 53 49 41 35 31 35 28 35 41 43 46 38 38 41 50 49 48 45 43 42 38 38 37 40 39 39 38 39 41 43 42 42 41 41 42 43 45 48 51 53 55 57 59
36 39 37 43 45 44 43 33 29 40 43 40 43 42 38 45 50 46 44 45 42 43 47 48 46 44 42 42 41 40 41 42 43 44 45 46 48 50 52 54 57 59 60 63

GFSCGP_500_spd_069.txt.gz
Wind_Speed
32 32 14 15 19 24 26 23 21 20 21 25 24 26 12 12 7 5 10 10 7 11 9 1 7 5 4 7 8 9 6 6 12 11 15 18 20 21 20 18 22 26 23 23
36 30 22 23 26 24 24 26 21 20 26 26 27 20 14 9 7 7 9 8 6 7 7 4 5 4 3 5 5 9 10 13 13 10 9 6 15 23 24 22 23 24 22 22
36 28 29 30 28 23 22 22 24 27 29 27 25 18 24 13 8 4 10 7 5 4 5 4 2 4 5 4 2 3 6 7 8 9 10 10 12 15 14 14 13 16 18 19
41 31 29 33 27 26 21 21 23 29 30 27 23 22 20 19 12 4 8 3 5 3 5 5 5 8 7 8 6 4 4 4 5 7 7 7 8 13 15 15 17 19 20 18
37 28 29 36 19 31 18 25 24 28 31 26 19 22 14 27 15 8 7 9 6 9 6 8 9 7 6 6 7 7 6 5 5 7 7 7 8 9 9 9 10 13 14 13
40 33 38 34 30 34 23 25 27 28 31 25 14 25 8 26 18 12 12 11 10 10 9 9 10 8 5 5 6 7 7 5 6 8 10 10 8 9 11 13 14 13 14 14
36 36 34 35 35 30 29 26 28 32 31 22 17 28 9 21 19 15 11 15 23 15 9 9 13 11 8 5 4 6 5 5 5 7 8 8 8 9 12 13 13 11 12 15
38 36 33 30 28 27 29 28 30 31 32 29 27 25 14 20 20 13 13 12 14 12 9 7 11 12 10 9 6 6 5 5 5 7 10 11 12 12 12 12 10 11 13 15
39 38 31 32 31 31 31 35 26 34 37 35 30 28 21 23 22 18 14 19 13 14 10 8 7 10 11 10 11 12 12 10 8 9 10 13 14 14 15 14 13 16 19 22
38 37 30 30 35 38 37 32 33 36 38 36 29 25 24 27 25 21 14 15 18 16 15 9 8 9 11 13 16 16 14 14 15 14 15 16 18 20 19 19 22 23 22 28
40 42 37 34 38 39 38 39 36 35 39 40 30 26 19 29 27 19 17 16 17 15 17 18 12 12 14 16 14 16 17 18 19 22 24 25 26 26 27 25 25 28 29 34
49 47 47 37 36 38 38 38 37 39 41 39 38 26 22 24 32 27 24 17 19 18 14 16 15 15 15 16 20 18 20 23 25 29 25 27 37 32 27 21 35 30 35 41
51 50 48 44 43 45 45 44 42 41 39 40 40 29 24 23 30 28 24 25 22 20 17 17 16 17 19 20 21 20 18 18 23 25 28 28 28 22 18 27 26 34 29 27
53 52 51 52 46 45 45 44 43 41 40 41 38 32 28 26 26 29 27 27 28 23 21 21 17 14 16 19 19 18 18 21 23 24 26 23 18 21 21 20 17 27 25 20
43 49 51 53 50 44 46 44 43 42 40 44 39 37 29 31 27 31 32 28 30 29 26 26 23 19 19 21 25 27 28 27 27 27 25 22 22 20 21 20 21 22 24 25
47 45 48 51 48 41 43 49 46 44 45 44 45 43 36 32 31 30 37 33 35 33 32 28 27 20 25 24 26 30 29 29 30 30 25 23 22 23 23 24 26 28 29 31
49 50 43 44 45 45 46 45 50 50 47 45 47 45 37 37 36 35 31 34 37 37 39 37 35 34 29 26 31 33 36 37 35 26 22 23 25 24 26 27 29 30 34 34
62 51 45 43 48 43 44 42 41 47 48 47 47 46 40 38 35 39 40 37 37 36 37 36 37 33 29 29 33 32 29 24 27 29 27 27 27 27 27 30 32 34 35 34
59 59 55 58 45 32 46 49 42 42 40 46 47 44 41 38 41 42 36 34 37 36 34 34 28 32 31 27 30 30 27 25 27 29 31 31 30 31 32 32 33 36 36 37
31 41 58 63 62 50 28 40 38 43 46 38 45 51 46 46 43 42 38 36 31 31 32 32 31 37 36 27 29 30 29 30 28 28 28 31 34 34 35 37 37 38 38 38
27 36 42 48 53 58 39 24 28 47 42 41 44 46 47 46 43 37 38 45 43 38 36 37 36 39 38 33 31 32 33 33 34 34 34 35 37 38 39 39 41 43 40 45
31 32 37 43 50 56 53 48 26 35 45 47 46 47 44 52 48 47 46 44 40 39 40 41 40 38 35 36 37 40 39 39 39 40 41 42 42 41 41 41 42 43 46 48
36 36 37 40 41 43 53 53 33 38 33 39 42 45 50 48 46 48 53 43 37 40 41 42 43 42 39 38 42 41 39 41 43 43 44 46 46 45 45 44 46 47 48 51
41 40 40 40 35 37 42 54 48 28 30 35 30 30 34 46 51 48 48 44 44 45 44 42 43 43 44 40 40 40 38 37 39 40 41 43 45 47 48 49 49 50 51 53
45 43 41 39 37 38 26 31 49 24 18 25 30 39 45 40 42 41 41 46 45 45 43 45 44 43 44 41 37 36 40 43 44 43 42 43 46 47 49 50 51 52 53 55
45 41 38 37 33 34 36 30 46 24 23 19 33 41 39 35 34 38 43 45 50 49 48 50 47 50 48 46 43 44 45 46 46 46 47 46 47 49 51 52 53 55 57 58

GFSCGP_500_spd_072.txt.gz
Wind_Speed
37 38 24 20 23 26 28 27 20 21 26 32 30 25 25 24 16 14 15 14 10 9 8 7 7 7 6 8 11 15 3 9 13 21 20 27 23 28 21 21 26 26 27 27
44 40 24 28 29 28 27 25 20 19 25 31 28 23 23 23 14 13 13 11 8 11 6 7 5 5 6 7 6 8 10 6 8 10 14 20 25 27 28 33 26 29 30 29
45 37 32 31 31 32 29 21 22 23 30 30 30 21 18 22 13 13 15 11 6 8 6 5 2 4 5 7 6 5 6 9 9 11 14 16 25 29 32 32 29 29 30 29
48 41 34 34 31 31 30 21 26 27 29 29 30 19 19 27 14 14 16 8 7 7 8 8 7 6 8 7 7 4 1 4 5 6 8 8 10 14 20 24 23 22 21 22
46 38 37 36 28 33 26 27 32 30 31 30 25 27 13 21 21 13 15 13 12 8 9 9 9 7 7 6 6 5 5 2 2 2 4 6 10 11 15 15 15 13 14 16
47 41 41 39 33 38 30 32 34 30 29 30 21 27 14 13 20 11 17 15 13 9 10 10 10 9 6 7 8 6 5 5 5 3 2 3 6 10 12 13 13 14 14 14
43 35 37 39 39 40 36 34 34 33 31 26 24 28 20 15 21 9 20 18 18 17 15 10 11 13 10 7 8 8 6 4 4 4 3 4 5 6 9 12 14 14 14 16
35 33 34 34 36 36 35 34 35 33 32 30 29 32 22 18 23 10 13 17 22 21 17 12 12 14 12 9 8 6 7 6 6 6 8 7 8 7 7 9 12 14 15 17
36 38 33 33 34 36 36 37 31 34 37 36 30 32 26 20 23 19 13 16 19 13 17 14 12 13 16 13 12 12 10 10 11 13 11 11 11 12 13 12 14 13 13 14
42 41 40 35 36 39 41 36 38 40 40 36 33 30 21 23 26 21 14 17 24 18 18 15 11 12 14 15 17 16 14 15 16 15 15 16 17 18 18 17 17 19 19 19
40 42 39 38 39 40 42 42 42 40 40 39 34 31 18 21 25 22 19 21 26 23 21 21 18 15 16 15 15 15 16 19 21 19 20 20 21 24 24 24 22 22 24 27
44 43 42 39 39 40 41 43 41 45 44 40 38 34 24 20 23 24 21 19 19 23 27 24 25 21 18 17 18 19 20 21 26 27 25 25 26 24 27 29 33 26 25 36
47 48 48 46 43 44 46 44 43 44 45 42 40 38 23 24 24 26 24 27 23 28 25 26 23 26 20 19 22 22 22 24 24 23 22 21 18 20 24 21 17 25 27 21
47 48 49 48 47 45 47 46 46 46 46 46 43 38 30 26 21 27 29 28 26 24 27 24 21 25 23 23 21 23 22 22 22 22 20 21 21 23 22 19 18 19 23 17
46 48 49 52 50 47 51 49 49 49 48 48 42 39 35 31 31 29 29 33 30 28 26 24 26 25 26 27 24 26 26 27 29 28 26 21 24 25 22 22 22 21 21 20
50 51 50 51 53 51 47 50 51 48 50 50 47 43 41 34 32 34 31 35 33 34 33 29 30 29 28 30 30 26 28 33 35 34 31 28 27 26 23 23 25 23 22 23
51 44 47 47 45 45 48 46 48 53 50 49 49 47 46 41 35 37 34 36 34 32 33 34 30 28 27 32 32 33 31 36 38 35 37 37 35 27 25 28 28 25 26 26
55 50 52 52 49 47 45 39 43 46 47 47 48 48 46 43 37 35 35 40 40 33 29 28 31 28 31 34 38 30 31 35 37 35 32 31 30 28 29 30 30 29 30 30
35 59 58 57 55 47 42 37 34 37 44 44 45 46 44 43 42 35 35 40 41 36 33 35 29 25 29 31 30 27 26 27 31 29 30 31 32 31 30 30 30 33 32 33
26 31 49 55 57 58 51 48 43 27 43 39 47 42 40 37 44 35 34 39 40 38 32 32 33 29 25 28 31 33 28 28 30 31 33 33 33 32 32 32 32 33 35 38
19 19 22 27 38 50 55 55 55 46 42 34 38 44 46 38 36 35 39 40 42 41 35 34 35 32 33 31 33 33 33 30 33 33 36 36 36 36 37 37 38 39 40 41
23 22 21 23 24 23 25 33 48 55 54 39 33 36 41 37 40 37 36 39 41 46 40 39 41 43 40 35 37 35 32 31 33 36 37 38 40 40 40 41 42 44 44 44
28 26 26 25 21 24 28 32 31 32 49 51 35 35 42 44 41 41 41 38 44 50 50 41 41 35 37 36 38 37 39 37 39 39 36 37 38 39 41 44 46 46 45 45
36 35 34 31 25 26 31 34 34 34 31 55 52 33 48 39 35 39 44 45 47 45 41 44 48 45 35 42 40 46 41 42 43 40 41 39 39 41 42 43 44 45 46 46
42 42 40 37 36 34 32 36 38 32 29 37 45 48 36 46 45 38 35 34 45 48 43 46 45 46 43 47 51 46 47 45 42 41 39 43 42 43 44 46 48 50 51 51
47 47 47 43 42 40 34 36 41 31 32 28 34 30 32 31 36 38 36 36 36 39 37 42 45 50 46 44 37 46 47 49 50 50 47 47 49 50 50 51 52 52 51 53

GFSCGP_500_spd_075.txt.gz
Wind_Speed
43 44 37 25 29 30 29 30 28 26 29 28 25 19 20 22 22 16 20 18 16 14 11 11 9 8 9 7 8 12 9 6 7 14 14 11 18 22 23 17 17 18 19 20
48 48 31 31 35 33 31 30 26 24 29 29 27 21 21 24 22 13 15 17 15 14 9 10 9 6 5 5 8 10 8 4 9 13 16 19 19 23 23 26 21 20 23 25
45 42 36 36 35 35 33 31 27 26 32 31 28 19 15 20 17 14 16 18 16 12 10 9 10 6 5 6 6 7 6 7 2 7 13 17 24 30 28 29 24 23 26 29
48 44 40 40 37 37 37 29 31 30 34 31 30 18 8 18 19 15 17 20 19 12 10 8 9 7 4 5 7 6 3 2 3 2 1 5 13 23 29 28 26 27 30 31
47 40 38 39 35 36 32 33 36 36 37 36 24 29 10 12 14 15 15 20 23 17 13 12 7 8 6 3 4 5 5 1 1 1 3 5 4 7 25 25 25 24 21 22
52 46 42 40 38 38 37 37 37 38 39 38 21 30 7 9 15 14 12 18 22 21 15 11 9 11 9 5 6 7 6 5 1 3 2 3 2 5 9 13 13 12 12 11
47 50 45 43 39 40 40 38 37 39 40 33 26 31 17 11 17 15 14 16 21 22 19 14 14 12 12 9 6 10 9 7 4 3 4 5 5 7 9 9 10 13 12 13
33 40 43 36 34 35 37 38 40 40 39 35 29 35 19 12 16 17 11 15 16 22 23 22 21 17 12 11 8 8 8 8 6 6 5 5 6 7 8 9 11 13 13 16
31 31 32 38 34 35 38 43 34 38 41 40 38 33 24 17 18 17 14 16 18 20 22 20 17 17 14 13 14 13 13 11 12 12 11 10 7 6 7 8 9 11 15 17
33 32 33 30 31 33 37 35 38 42 42 41 41 35 26 17 21 17 13 17 21 20 20 20 16 19 15 15 16 17 16 16 17 16 15 14 13 13 11 10 11 14 17 19
33 33 36 35 36 32 32 34 35 38 41 42 41 38 28 18 16 14 13 20 21 22 20 26 23 22 20 17 16 16 16 16 18 18 19 19 18 18 18 17 20 19 21 25
35 35 38 38 37 38 39 38 38 41 41 43 42 41 36 22 20 17 17 19 21 24 24 25 27 26 25 23 23 20 19 18 17 20 23 21 24 22 22 23 20 19 22 26
38 40 38 35 34 35 38 39 40 41 42 41 43 44 43 28 22 19 22 20 23 22 23 25 27 28 27 27 28 28 23 22 23 24 25 22 20 15 19 20 22 24 21 24
45 45 44 43 40 38 38 40 43 43 43 43 42 43 41 33 27 23 23 25 26 29 31 32 29 26 27 26 28 27 27 29 27 25 23 21 18 21 23 22 21 20 22 20
47 46 47 48 46 45 46 45 44 46 46 45 44 44 44 40 32 31 28 27 26 30 30 32 32 30 30 30 30 28 26 26 28 27 26 26 28 28 27 23 26 26 26 25
49 47 47 47 47 44 45 44 46 47 46 46 49 48 45 44 39 35 34 32 30 27 32 30 30 33 34 33 32 31 31 30 31 29 30 33 33 33 32 30 28 29 28 26
49 50 46 47 44 46 46 40 43 45 47 51 52 51 49 46 44 39 38 36 32 32 29 30 30 34 34 37 35 36 37 38 37 37 37 38 37 33 34 34 32 30 30 29
47 45 45 45 46 48 46 38 40 41 44 46 51 54 54 51 44 41 34 35 36 30 32 32 30 29 26 35 39 36 38 38 38 32 32 35 33 33 28 28 30 30 31 31
39 43 42 47 47 47 47 40 39 32 34 37 45 51 52 52 46 39 34 37 36 33 32 32 29 30 34 31 34 37 36 33 34 31 28 29 29 27 29 30 31 31 32 32
37 35 32 33 39 38 35 45 44 43 41 39 40 39 45 50 50 43 37 37 41 41 35 29 28 29 32 29 31 32 33 31 33 32 30 31 31 31 32 33 35 35 34 35
31 30 26 24 19 16 21 34 44 48 49 46 42 39 38 41 46 45 38 36 40 41 37 33 32 33 31 33 35 33 32 33 32 33 34 33 33 35 35 34 36 38 37 38
23 22 19 15 11 10 13 18 20 23 29 47 42 51 47 39 37 41 42 37 38 38 39 38 35 37 33 36 39 38 40 39 40 40 34 32 32 33 36 36 36 38 38 39
23 20 18 17 14 16 19 20 21 20 19 21 29 29 43 43 40 39 35 34 37 39 36 34 37 36 38 40 44 40 45 44 43 42 37 36 41 40 38 38 38 37 37 39
28 26 23 21 20 20 22 24 23 22 23 22 24 26 29 41 45 40 42 41 41 40 41 40 41 41 47 47 45 42 40 44 48 45 40 45 42 45 46 45 43 41 41 41
32 31 30 30 28 26 27 29 29 28 27 27 25 28 25 23 35 47 37 42 46 44 45 45 42 45 47 45 37 38 48 43 46 49 47 50 44 42 44 42 44 45 47 47
35 35 36 37 36 34 32 34 36 36 33 30 29 29 29 26 27 32 43 38 51 44 37 35 35 37 39 45 40 38 40 41 44 46 51 55 46 47 48 53 53 54 51 49

GFSCGP_500_spd_078.txt.gz
Wind_Speed
46 48 47 29 30 31 35 29 30 30 33 29 29 25 19 18 17 19 21 19 18 12 18 18 15 11 8 9 7 6 11 11 9 14 13 18 20 15 13 14 19 16 13 19
49 55 39 33 36 36 37 32 28 32 35 33 30 25 23 20 18 18 17 17 18 15 17 17 15 8 5 5 2 5 8 4 7 8 12 13 11 15 18 20 15 19 15 12
51 50 39 38 37 41 38 34 28 34 38 36 34 24 26 19 16 15 18 19 18 19 16 16 14 7 5 4 3 5 6 4 5 14 13 19 20 16 18 20 17 14 13 15
49 57 48 41 40 42 40 32 34 37 41 38 38 26 21 13 17 20 18 18 19 20 16 16 15 8 5 5 4 3 4 4 2 2 4 7 16 20 21 22 18 18 21 17
51 49 49 44 38 39 37 38 37 41 41 41 36 33 23 14 16 21 18 15 17 20 16 17 15 12 7 6 5 3 3 2 2 2 1 1 3 10 21 28 25 23 22 21
52 52 52 48 42 41 41 40 40 39 39 44 32 38 19 15 16 20 18 16 14 18 17 15 11 15 12 9 8 7 6 5 4 3 2 1 1 3 4 16 19 20 25 24
50 50 52 51 45 43 45 42 41 39 41 43 36 40 21 19 17 18 17 18 15 18 17 15 13 18 17 12 10 10 9 7 5 3 3 3 3 4 4 6 7 6 10 14
37 40 43 47 48 43 43 42 43 43 42 41 42 42 30 19 19 18 16 17 15 14 17 19 18 18 22 13 12 11 7 6 5 4 2 4 5 6 8 10 12 12 11 13
37 35 30 35 45 45 42 46 42 44 47 46 42 43 33 21 23 19 18 18 14 16 18 18 18 14 16 14 15 15 12 10 9 10 8 6 6 6 7 8 9 10 14 16
25 24 27 26 35 38 43 42 42 43 44 45 43 40 36 21 22 19 18 18 17 20 20 18 18 15 16 17 17 15 16 14 14 15 15 13 10 10 9 11 13 14 16 16
23 24 30 29 30 30 35 40 39 41 43 40 38 27 36 19 20 17 16 18 19 23 26 24 22 22 19 18 18 15 14 16 15 16 16 15 14 14 13 13 14 14 13 18
24 22 26 30 30 30 34 36 36 40 38 39 39 36 40 23 24 19 16 20 21 23 25 27 25 23 25 23 21 18 17 18 20 20 20 18 19 20 21 19 19 19 17 18
25 24 23 25 28 29 28 30 33 34 36 40 38 34 35 29 26 25 23 23 23 25 25 26 28 28 28 28 27 27 24 23 23 22 22 23 21 22 21 20 18 18 20 22
33 34 30 25 30 31 31 31 30 30 32 34 36 36 35 32 31 24 26 26 26 26 27 26 26 26 28 28 30 29 27 28 27 25 25 25 24 22 23 23 23 23 23 25
40 39 38 38 36 34 33 32 33 35 36 38 36 38 38 36 30 28 29 30 30 29 32 33 32 32 33 34 30 31 31 30 30 28 24 22 25 25 25 28 29 29 28 26
41 39 39 39 40 41 41 40 40 39 39 40 40 41 43 42 41 35 30 30 35 33 32 35 34 34 36 35 35 38 38 36 33 29 27 27 27 28 28 31 36 37 35 33
41 41 39 37 37 38 42 41 40 40 40 40 43 49 49 46 43 40 35 33 34 36 34 34 37 36 35 35 35 36 38 41 40 37 35 33 34 37 39 40 38 37 37 37
42 41 42 40 38 41 40 39 35 38 36 39 42 46 47 48 47 45 41 40 35 36 41 38 36 38 37 36 36 41 42 43 44 44 41 38 39 40 39 38 33 34 34 33
38 41 41 41 41 39 41 39 37 39 38 39 39 42 45 47 49 49 46 40 37 37 38 38 33 34 38 37 36 42 47 46 46 50 45 43 41 35 34 32 31 31 31 32
32 36 37 36 35 34 35 35 37 36 37 42 41 40 43 42 41 44 44 42 39 35 38 40 37 34 37 39 38 39 39 44 48 49 50 46 43 39 33 30 32 33 34 35
27 29 28 26 25 23 27 27 28 33 37 43 42 46 44 43 44 43 41 43 36 39 40 40 38 41 40 38 36 36 37 41 45 44 44 44 42 40 35 32 31 34 36 39
22 23 25 24 23 23 21 22 23 23 23 28 35 39 46 46 47 48 45 40 37 33 40 39 40 38 42 40 38 37 35 38 41 43 45 45 47 48 50 41 35 32 35 38
19 18 19 20 19 18 18 16 11 11 12 13 16 20 22 25 34 44 48 46 44 38 35 41 40 40 43 46 42 42 41 42 45 44 47 50 56 49 53 52 42 41 42 40
21 21 23 22 22 21 20 20 18 15 14 15 15 16 19 21 24 28 35 42 45 41 38 38 42 41 43 40 42 43 41 43 43 52 49 49 56 54 57 57 56 47 47 49
24 24 24 24 22 21 24 23 23 23 23 23 25 24 23 22 24 27 26 27 36 42 39 41 40 41 43 44 43 42 45 48 51 50 51 51 54 59 57 58 62 64 50 48
25 26 26 27 27 28 30 30 30 31 31 31 31 31 30 29 27 27 28 30 34 37 45 39 46 44 47 49 51 50 50 51 50 47 46 46 55 58 57 51 65 59 57 56

GFSCGP_500_spd_081.txt.gz
Wind_Speed
56 58 57 51 40 32 31 32 27 21 25 38 30 29 25 24 21 22 22 24 24 19 16 13 12 14 14 12 13 13 16 20 19 14 16 18 13 16 14 21 15 11 24 27
56 57 56 52 44 41 38 37 32 26 33 40 31 33 27 24 21 21 25 25 24 20 16 14 12 12 14 10 8 10 11 11 8 8 11 13 12 14 15 17 13 15 10 14
54 52 49 51 46 45 41 39 30 29 33 47 32 34 28 24 22 25 26 23 22 20 15 12 11 13 14 10 7 8 9 8 8 10 11 9 11 8 11 14 16 19 15 14
53 52 52 47 47 44 43 36 32 35 40 43 34 35 26 25 19 26 25 25 21 17 12 12 9 12 13 11 8 7 7 7 7 8 8 11 12 15 17 17 16 15 12 10
52 49 56 48 39 42 40 36 36 39 43 43 37 38 27 27 23 25 26 24 22 15 10 12 9 11 11 12 10 9 8 6 7 8 9 8 7 2 6 15 20 19 16 15
53 50 50 46 46 46 40 41 41 42 42 45 38 35 31 24 23 23 27 25 23 17 13 12 9 9 8 8 10 10 12 10 6 6 7 9 8 7 3 7 17 21 20 18
52 59 52 51 44 47 49 44 44 43 44 46 36 36 33 26 26 25 26 25 24 18 16 13 12 14 13 14 11 10 10 12 10 6 6 7 7 7 6 2 6 9 11 13
50 51 54 54 50 49 48 48 44 39 34 33 30 40 32 31 27 26 24 27 24 19 16 16 17 15 18 17 13 11 9 6 7 7 4 6 8 7 6 4 2 7 9 8
30 46 49 53 51 53 51 54 45 37 34 34 29 20 28 22 25 26 24 26 24 22 19 18 16 16 17 16 14 10 11 10 9 9 10 10 10 9 8 7 7 8 12 14
21 28 36 42 42 48 51 48 48 50 45 45 42 28 22 21 23 27 21 24 25 20 21 19 17 17 16 15 13 12 11 11 9 11 11 11 13 11 9 11 11 12 14 14
12 22 9 32 38 37 43 46 45 38 40 37 31 24 22 21 23 20 24 23 23 20 22 23 22 19 18 17 17 16 14 13 12 11 12 12 11 12 13 14 14 15 13 14
17 10 21 20 20 22 27 35 38 36 30 27 33 26 21 26 23 25 21 18 22 21 24 26 26 24 22 21 22 21 19 19 16 17 15 15 15 12 15 18 19 20 18 16
22 13 9 8 18 22 27 31 30 28 24 25 24 26 28 21 25 29 25 24 22 24 25 26 27 28 28 27 26 24 23 24 25 23 22 21 19 16 18 20 21 18 18 19
26 21 16 19 18 15 15 17 19 23 30 31 33 30 25 24 27 27 23 22 23 30 28 27 28 30 30 30 27 26 26 27 28 27 26 23 24 23 21 21 21 21 23 24
32 30 28 23 24 20 25 21 23 23 24 26 24 25 28 31 28 25 25 23 24 26 32 30 31 31 31 29 29 27 26 26 30 31 30 29 29 29 26 24 24 26 28 29
37 34 33 30 30 29 25 25 26 27 26 28 29 30 30 33 36 27 25 25 26 28 32 37 36 37 37 36 35 35 34 34 36 35 34 34 33 31 29 29 30 30 31 33
35 31 32 34 32 31 34 31 32 30 32 32 31 30 38 40 39 38 34 31 32 34 35 33 35 40 42 40 40 41 38 39 38 37 36 35 34 33 32 35 36 38 39 42
44 43 38 34 34 36 31 31 32 30 29 26 26 33 42 41 40 40 42 36 34 33 32 34 38 37 41 43 43 42 41 40 39 40 39 38 36 37 37 38 38 39 41 41
41 41 41 41 38 35 31 34 34 31 25 37 36 36 41 42 35 35 41 42 37 34 34 36 39 36 36 40 44 47 46 44 41 42 45 43 40 41 43 44 43 42 42 37
35 37 38 38 37 37 31 35 37 31 28 40 41 45 47 44 40 32 37 41 38 34 29 31 36 38 37 40 37 41 47 48 48 45 48 50 46 47 49 46 46 40 41 39
27 30 31 29 30 30 32 29 23 25 30 36 40 41 44 44 46 44 41 41 41 39 33 28 29 37 37 42 43 39 46 51 53 52 52 54 50 49 51 54 45 41 41 39
22 25 25 26 28 29 26 23 23 26 27 30 32 33 36 40 44 47 47 45 44 41 40 39 30 35 39 41 45 44 46 46 49 53 52 48 50 55 51 49 48 47 49 45
14 17 18 19 19 23 22 24 23 19 20 22 23 24 22 23 27 31 36 42 44 48 47 45 42 37 40 43 47 44 45 47 48 46 48 49 51 53 55 58 50 54 56 53
24 18 20 16 18 17 23 16 21 20 18 17 17 16 15 16 18 20 24 27 29 31 38 43 46 46 42 43 48 49 46 49 50 49 54 52 50 53 56 55 58 63 57 66
24 24 24 25 21 25 31 28 24 24 21 20 20 20 20 21 22 23 23 24 27 31 33 31 37 45 45 44 49 51 49 48 52 53 52 50 53 56 59 57 62 62 62 68
24 26 24 28 26 28 26 26 22 25 23 24 25 26 28 29 29 29 29 29 29 29 34 37 35 34 46 45 48 47 48 50 49 47 47 50 52 58 59 63 61 66 65 62

GFSCGP_500_spd_087.txt.gz
Wind_Speed
42 44 49 46 47 47 50 59 57 49 42 34 37 41 34 29 29 28 23 20 21 23 17 12 17 18 15 12 10 7 11 13 13 18 17 13 16 17 17 20 20 22 25 29
41 43 39 46 50 51 56 52 54 53 36 36 33 30 28 34 30 27 24 20 18 19 20 12 12 16 13 10 8 6 8 11 13 14 17 9 8 8 9 11 12 16 25 26
42 38 43 45 51 51 49 48 50 50 35 45 46 33 34 34 28 25 22 18 19 20 25 17 9 15 13 10 9 6 7 9 11 12 13 7 6 6 6 9 14 17 23 25
35 35 39 42 46 49 48 45 55 54 47 47 45 47 34 32 29 27 23 20 18 17 24 19 9 16 15 12 11 7 7 8 9 12 12 9 5 4 4 8 13 11 11 12
32 32 35 39 36 45 45 49 56 59 48 50 50 52 40 28 32 29 27 20 19 19 22 20 11 16 15 15 12 8 5 7 8 9 11 10 7 6 6 5 9 10 9 11
26 28 32 33 34 38 44 41 52 49 49 50 46 52 48 36 25 18 20 20 20 15 20 17 12 15 15 17 12 8 5 6 7 7 8 10 9 7 8 7 7 11 10 8
25 26 30 30 34 33 33 40 38 42 44 49 46 50 48 31 28 22 28 25 20 19 21 17 12 15 17 17 16 11 7 6 7 4 4 4 6 8 7 7 6 8 15 16
22 24 25 21 29 27 40 40 41 46 54 50 43 50 44 25 26 24 25 20 24 25 24 18 14 14 18 18 21 16 12 10 7 4 4 2 5 6 7 5 4 4 9 15
19 19 24 15 27 31 38 45 37 40 43 45 42 44 26 28 27 25 28 30 25 26 27 22 18 16 18 17 21 21 13 13 10 8 8 8 6 5 4 5 3 1 3 5
16 15 22 19 25 32 31 43 39 40 31 37 36 31 27 21 21 27 29 32 31 33 30 29 22 18 20 18 21 20 16 16 13 12 11 8 6 5 4 3 3 4 4 5
17 17 18 18 18 33 33 40 45 44 38 33 33 32 34 31 32 35 36 36 33 31 30 28 25 19 22 22 21 21 18 18 16 16 15 11 9 7 7 7 6 5 5 7
20 16 17 15 15 25 44 38 32 35 37 36 32 26 41 42 41 32 35 37 34 31 31 32 29 22 24 24 24 24 21 20 19 19 18 17 14 12 10 12 11 10 9 9
20 18 16 13 7 6 25 37 43 37 33 38 38 36 20 34 46 46 42 40 32 33 29 27 30 28 26 29 29 27 26 24 23 21 21 21 20 18 16 16 16 15 14 14
19 19 17 16 15 9 12 25 26 28 31 33 30 36 31 20 34 37 38 36 34 32 31 30 27 30 30 31 31 30 30 29 27 21 23 25 26 25 24 21 19 18 19 17
21 20 19 17 21 18 9 14 23 24 23 33 32 29 30 42 39 36 46 40 37 33 35 31 29 30 28 25 28 29 29 29 30 30 27 28 30 30 27 25 25 24 22 22
23 23 24 24 21 24 15 8 25 28 23 23 30 27 23 24 16 33 43 42 42 34 32 29 33 35 28 31 31 27 28 29 31 31 30 29 29 27 26 26 27 28 27 26
23 25 29 24 24 24 19 19 25 21 25 31 22 21 18 17 24 27 33 36 39 35 35 34 34 33 32 32 33 30 32 31 31 30 31 33 34 34 33 33 32 31 32 31
27 25 28 26 26 26 18 20 19 18 13 16 19 24 20 22 26 31 26 25 26 26 29 34 33 29 28 27 29 31 31 34 33 33 38 39 41 41 39 38 35 35 35 33
32 31 33 35 32 29 21 23 23 20 20 17 17 17 23 20 22 26 23 26 29 30 32 33 32 30 31 31 33 32 35 31 32 33 34 37 40 42 43 40 38 38 40 39
34 34 35 37 40 37 23 25 21 20 28 25 21 19 23 25 28 30 32 30 23 27 28 30 31 35 39 38 38 41 39 41 41 41 41 40 40 41 43 46 46 45 47 45
17 28 33 33 38 40 34 35 29 29 33 35 31 29 28 26 33 32 32 32 37 39 32 34 34 30 33 34 37 40 44 45 47 48 49 48 45 44 46 46 49 52 50 52
11 16 22 29 34 36 34 39 41 42 42 35 29 33 36 39 38 41 40 43 48 48 42 39 42 44 45 44 40 38 40 44 48 50 53 55 53 52 49 49 48 51 55 55
7 8 12 17 20 20 19 21 22 27 28 28 30 29 26 30 36 41 44 44 45 43 38 35 36 40 38 39 41 42 43 42 45 50 54 56 57 58 58 53 54 53 53 59
15 11 10 11 14 15 18 17 23 27 24 28 26 31 31 31 33 34 36 35 34 31 26 24 26 28 30 31 32 34 38 43 48 50 53 55 58 60 62 62 62 62 63 63
19 12 13 16 17 16 18 19 20 24 26 32 33 35 35 30 30 27 27 26 25 24 24 25 26 28 29 29 31 33 34 36 37 41 48 54 57 61 61 60 63 63 61 65
25 23 17 20 25 21 28 23 30 26 20 24 28 28 30 30 28 26 27 27 27 28 29 30 31 31 32 32 33 34 35 36 36 38 40 44 44 50 63 64 60 58 65 65

GFSCGP_500_spd_090.txt.gz
Wind_Speed
35 34 31 31 35 41 45 49 52 48 39 41 48 53 42 42 43 43 38 32 28 24 23 17 17 21 15 15 16 14 12 10 9 10 12 14 12 14 16 18 20 22 24 26
31 29 28 33 37 40 45 50 47 40 39 51 52 47 47 39 42 45 37 34 28 25 23 20 16 17 14 12 15 12 12 10 8 11 12 14 11 8 7 11 13 15 18 22
28 26 28 33 35 39 44 44 42 44 45 51 50 46 52 40 45 49 43 32 23 22 23 21 12 12 13 13 15 13 13 11 9 10 11 10 11 8 5 6 7 12 16 19
26 27 32 33 34 38 43 42 48 51 50 49 47 42 46 41 46 43 43 31 25 23 23 15 8 10 15 13 15 15 13 11 11 11 10 8 9 7 5 7 11 12 15 16
23 24 29 35 39 39 37 45 49 50 50 49 41 51 34 41 45 32 34 31 25 25 21 13 9 11 15 13 15 16 14 13 10 10 10 8 8 8 6 9 11 12 17 13
24 26 27 30 35 38 41 46 44 45 49 44 38 49 40 44 35 31 30 30 26 26 21 15 13 11 16 15 15 16 14 14 9 10 9 8 7 7 7 9 10 9 14 10
24 25 26 29 32 37 40 38 35 36 42 38 37 40 46 36 37 25 23 26 25 27 22 18 13 12 17 16 17 17 14 12 11 10 8 8 5 4 5 7 10 9 6 9
21 19 21 23 30 35 30 28 27 35 39 39 34 41 40 32 42 37 30 30 31 25 24 17 14 16 16 18 18 20 18 15 15 13 11 9 8 6 3 3 5 9 4 5
20 17 17 20 21 25 23 27 25 33 33 35 31 33 29 33 42 35 32 37 29 23 27 19 18 17 19 22 20 20 22 19 19 17 15 12 11 8 5 4 2 2 4 1
19 16 17 15 19 20 23 27 29 31 31 33 28 28 31 34 27 33 36 35 30 29 27 23 21 19 17 23 22 23 21 21 20 20 20 15 13 9 7 4 4 4 3 3
20 17 14 14 19 14 22 29 31 40 39 34 27 25 27 30 33 31 34 36 34 34 32 29 21 19 21 24 24 24 22 22 22 22 22 19 15 14 11 10 8 7 6 7
18 17 13 12 16 12 17 27 27 32 38 39 32 23 24 26 35 36 41 40 35 38 33 31 27 26 25 27 27 29 27 24 24 24 23 22 20 18 16 13 12 10 9 10
19 18 15 12 11 5 5 21 36 28 31 34 38 31 29 41 42 43 47 46 37 42 40 33 30 28 31 33 32 32 31 26 26 26 24 23 23 22 21 19 17 16 16 16
20 19 17 16 11 14 12 12 25 37 32 31 26 30 37 26 48 49 52 45 42 39 38 36 31 29 24 31 34 34 34 32 31 29 27 26 25 26 26 24 22 22 20 18
22 20 19 18 16 18 20 16 19 20 34 43 32 33 36 34 22 38 47 47 43 41 42 38 33 30 24 24 31 35 34 34 34 35 33 29 30 30 31 30 29 28 26 25
23 21 20 20 19 24 20 12 16 27 22 28 29 32 29 26 38 35 37 47 41 39 39 37 32 33 27 28 27 29 24 29 33 28 28 33 34 34 33 34 33 31 30 30
23 21 22 20 22 25 23 19 11 9 25 25 26 24 42 32 25 25 34 42 41 44 42 38 36 37 32 29 29 30 34 31 28 28 31 32 33 34 35 36 35 32 33 35
24 24 23 22 27 30 20 17 12 4 14 28 23 28 25 21 25 28 30 30 39 45 41 41 44 35 31 31 34 38 38 36 37 36 37 37 39 37 37 36 37 37 38 39
28 28 27 25 28 29 20 15 16 18 18 13 14 15 23 22 16 25 30 21 20 25 29 31 25 27 32 35 36 37 40 37 37 38 39 41 41 37 41 44 42 41 42 41
29 31 32 29 32 32 25 27 21 22 20 16 16 22 19 24 20 19 20 29 23 27 27 29 31 30 32 35 34 37 38 40 35 33 40 39 41 41 40 40 40 43 46 47
11 18 28 29 34 35 30 34 27 27 23 17 22 18 14 18 24 23 23 26 28 28 30 30 30 30 32 39 43 44 47 48 48 47 46 45 44 46 46 46 48 49 48 47
12 12 14 20 32 36 29 34 34 33 33 24 25 27 28 30 32 30 31 26 30 32 30 31 36 39 39 40 42 44 46 47 47 47 49 50 50 50 50 51 51 52 53 55
10 14 18 18 22 26 23 29 31 35 36 35 34 36 36 33 34 36 37 37 43 40 41 41 45 46 48 45 44 47 48 49 51 55 56 55 56 55 55 57 58 60 60 54
5 10 12 9 9 14 16 18 19 26 27 31 33 33 28 31 35 35 37 41 44 45 48 51 54 54 48 44 44 45 47 47 44 44 46 49 52 56 59 61 61 62 65 67
16 17 9 12 12 15 21 22 24 24 28 29 20 30 33 33 31 34 36 36 38 41 44 43 42 42 40 39 38 35 34 35 35 36 38 40 42 44 47 49 51 57 62 66
8 22 13 11 19 17 19 20 22 23 29 25 34 32 34 37 38 37 37 36 36 38 37 36 35 34 33 33 34 36 37 38 39 40 41 41 43 44 44 47 49 50 55 58

GFSCGP_500_spd_093.txt.gz
Wind_Speed
38 38 37 31 34 39 41 42 41 40 38 37 45 48 47 45 44 45 47 46 42 44 31 34 29 26 23 21 22 23 18 15 17 14 13 13 16 16 15 19 22 22 23 24
37 36 29 33 36 36 36 35 35 34 34 40 44 48 46 43 40 44 40 42 41 38 34 33 30 24 21 22 21 21 16 16 17 15 15 13 13 14 13 14 16 20 22 24
34 33 32 33 33 34 33 34 31 34 36 40 46 56 51 39 41 41 37 41 45 39 36 35 30 24 23 22 20 19 16 17 16 16 17 15 12 11 11 13 11 14 17 20
33 31 30 33 32 32 32 29 32 36 39 44 46 56 47 40 40 37 40 41 45 40 37 32 29 23 21 22 19 19 16 18 17 16 15 15 13 10 11 12 11 14 15 19
33 32 33 33 31 30 29 29 32 35 39 46 47 52 40 38 38 40 42 42 46 39 40 33 26 20 23 22 18 19 17 18 17 16 14 15 13 12 11 11 12 13 14 17
32 31 32 32 29 28 30 31 31 33 39 49 43 48 35 36 24 38 42 41 45 39 39 33 27 26 25 22 18 19 17 19 18 16 13 13 12 12 12 12 12 12 11 16
31 32 31 29 28 28 29 31 33 36 39 39 37 42 35 33 28 33 32 39 36 38 36 29 28 23 22 21 20 18 17 19 18 17 14 13 10 11 11 11 11 11 10 10
33 32 29 27 26 26 29 30 28 33 37 36 33 31 28 27 26 33 37 40 40 41 35 27 26 24 24 21 21 20 19 21 20 17 16 15 11 10 13 14 12 8 6 5
32 31 28 25 23 25 25 25 26 29 30 33 32 30 28 23 25 33 37 37 34 34 28 24 27 27 23 20 21 21 19 23 23 20 19 18 15 12 11 12 13 10 5 1
29 27 27 25 21 21 21 23 23 28 30 29 25 24 21 19 20 24 30 41 33 33 31 29 27 28 24 21 23 23 22 21 26 23 22 21 18 16 11 11 10 11 10 7
31 29 27 23 21 17 19 21 24 28 22 31 24 16 13 16 17 22 27 37 41 36 33 31 30 30 27 25 25 25 24 22 25 25 24 24 20 18 17 14 12 13 12 11
31 28 24 23 20 14 15 17 21 28 30 33 34 25 17 22 16 20 25 25 38 38 39 36 34 29 27 27 28 31 26 24 27 25 24 25 23 22 20 19 16 15 13 12
29 27 22 19 18 13 14 11 17 33 31 18 23 35 32 19 29 24 28 34 32 38 42 41 35 32 29 31 31 34 29 29 28 27 26 26 25 25 24 23 22 20 18 18
27 26 24 22 21 18 17 13 11 20 31 31 24 23 29 30 19 35 27 36 36 43 44 42 37 36 36 35 34 34 33 31 30 29 28 28 28 29 29 28 26 26 24 22
23 24 23 21 21 22 20 19 17 19 20 32 33 29 28 31 21 21 29 40 39 33 41 42 37 39 37 34 35 35 36 34 35 34 32 30 31 33 34 32 31 32 31 29
30 26 23 21 21 21 24 19 16 15 25 28 32 31 27 23 33 32 15 40 48 44 36 36 37 38 35 33 33 28 27 30 43 44 36 36 34 32 33 35 35 34 36 36
24 25 25 22 23 22 22 25 19 11 12 21 20 26 37 32 26 16 23 31 38 47 47 43 45 41 37 34 31 28 28 30 27 27 28 35 36 37 34 36 37 37 37 37
23 22 24 24 23 24 21 23 16 11 3 10 17 18 19 17 25 25 20 27 34 33 46 41 45 43 38 38 34 34 35 34 31 31 33 34 33 36 39 39 39 39 39 37
24 24 25 25 24 25 19 27 22 20 10 9 9 17 18 20 22 15 18 18 20 29 35 43 40 40 43 42 39 39 39 38 38 38 37 39 42 44 44 44 41 42 46 43
25 25 26 27 27 28 22 28 22 20 20 13 13 18 16 20 25 24 19 14 15 19 19 23 32 45 49 50 40 35 38 41 38 37 39 45 47 46 47 47 46 44 43 42
21 24 26 30 32 30 26 28 28 27 22 17 18 16 19 10 19 22 23 22 21 17 27 29 29 33 34 31 29 28 31 34 37 39 40 40 40 44 47 49 48 47 47 51
14 17 19 26 33 38 27 32 33 35 30 20 20 22 24 24 24 21 21 21 27 22 23 27 30 31 34 36 33 32 34 36 39 44 44 45 46 47 49 51 53 53 54 55
16 17 17 19 16 18 24 33 33 36 38 31 27 25 26 27 27 28 30 30 30 31 31 31 33 33 33 36 39 41 42 42 42 42 46 48 50 50 50 51 55 59 58 58
20 8 11 17 13 13 17 25 30 30 32 31 29 37 36 32 31 34 37 36 33 35 35 38 39 40 40 41 42 45 46 49 51 47 48 48 52 55 58 59 56 56 57 59
19 9 11 17 13 9 11 18 18 17 19 27 31 24 28 33 36 29 27 33 34 34 35 35 36 38 42 42 46 46 47 46 43 43 44 46 47 46 48 46 47 47 48 48
16 10 18 17 22 14 10 14 18 24 20 24 33 30 26 27 33 39 38 35 33 35 37 38 37 37 38 40 41 41 40 40 40 41 42 43 44 45 47 47 47 48 50 51

GFSCGP_500_spd_096.txt.gz
Wind_Speed
42 45 44 36 37 40 42 43 46 46 47 47 48 45 50 47 42 39 36 39 44 46 43 40 37 38 33 31 33 29 25 25 20 19 17 16 16 16 17 18 19 17 18 22
41 41 36 38 38 39 41 42 44 46 45 47 46 46 47 46 40 36 36 36 36 42 45 38 38 35 33 33 36 31 26 24 19 18 17 17 17 17 15 15 19 18 16 19
40 39 39 37 37 38 38 40 41 41 42 43 45 46 45 40 37 33 37 37 33 42 44 39 35 33 33 34 36 31 27 23 19 18 17 16 17 17 16 14 14 17 15 15
39 38 37 35 33 34 37 37 37 38 39 39 41 47 38 37 32 36 34 31 31 39 42 41 36 38 32 32 36 34 27 22 20 18 17 15 15 15 15 14 12 12 15 15
36 35 34 33 33 34 33 32 34 35 36 37 40 39 40 35 36 31 31 33 33 36 41 42 39 37 34 31 35 35 28 22 20 19 17 15 15 15 15 13 12 11 12 13
38 36 33 31 32 32 31 32 32 33 35 38 33 35 37 34 32 28 28 35 38 35 42 39 40 42 37 38 36 34 27 23 20 19 17 15 14 16 14 11 10 13 11 12
36 33 31 33 31 31 32 31 32 33 31 30 29 35 29 28 26 34 29 35 39 37 44 38 40 34 36 38 34 32 28 23 20 18 18 17 13 15 14 12 10 11 12 12
36 34 33 32 31 31 31 31 29 27 27 27 24 27 30 23 23 23 27 27 31 35 42 37 39 38 37 33 33 32 30 22 20 19 19 19 15 15 13 13 13 11 11 10
36 37 34 32 31 31 32 30 26 24 24 27 24 22 25 20 17 21 23 27 30 32 37 32 34 33 34 29 32 32 29 24 22 22 21 21 18 16 15 12 11 10 10 8
36 32 32 32 33 33 31 26 23 23 24 24 23 25 19 16 17 22 22 25 28 31 31 29 37 34 33 31 32 31 28 24 20 25 23 24 22 20 18 15 12 10 8 8
34 34 34 33 33 32 26 25 22 21 23 23 24 25 16 13 15 16 23 27 29 28 31 33 34 35 32 34 33 33 29 25 22 24 26 27 25 21 21 18 16 13 11 10
32 32 33 32 30 26 25 23 22 22 22 25 29 26 19 19 14 13 18 26 26 31 34 40 39 35 32 36 38 34 31 28 25 24 25 26 27 23 23 23 21 19 16 13
29 30 30 29 28 25 23 21 18 19 25 24 30 27 26 28 22 17 23 18 24 36 37 34 39 38 34 37 38 36 33 31 26 26 26 27 26 25 26 26 25 24 22 19
27 27 27 27 27 24 23 20 17 17 20 25 32 28 18 27 30 26 8 25 16 26 42 41 43 40 38 37 39 37 32 30 28 27 25 28 28 27 27 28 27 26 25 26
24 26 25 26 26 26 23 22 21 20 20 22 22 32 30 24 26 29 18 18 27 23 41 47 41 44 40 40 38 36 34 33 34 33 31 31 29 28 28 29 29 28 27 29
22 24 25 19 25 27 22 24 23 16 16 25 19 18 28 31 28 23 27 12 22 27 29 35 43 48 44 43 38 38 34 33 32 31 33 33 31 31 33 34 32 32 33 33
25 26 28 24 24 23 21 19 20 20 15 22 19 19 20 31 27 21 14 12 16 40 34 35 43 45 47 42 40 37 38 35 30 27 22 24 25 31 40 38 38 37 38 37
22 23 26 27 25 23 20 19 18 17 17 15 11 11 11 19 25 24 14 17 21 29 34 40 47 53 49 42 45 45 37 32 31 30 29 28 27 28 28 33 37 40 39 38
20 19 22 25 23 23 20 19 16 17 17 11 7 5 9 11 14 15 16 16 22 25 33 28 34 48 54 54 49 43 40 37 36 36 36 36 30 30 32 33 35 37 39 41
27 27 23 24 23 24 17 20 21 18 19 23 14 13 13 12 17 26 26 20 16 18 18 26 29 25 39 45 53 51 42 37 40 42 40 39 37 37 38 39 42 44 46 48
19 20 21 24 25 24 21 22 24 21 20 21 23 17 17 17 14 18 18 22 22 17 13 19 21 25 20 23 32 44 43 43 47 48 46 43 37 39 43 46 47 49 49 49
16 15 15 19 21 21 23 24 28 26 25 25 25 25 25 24 20 17 9 17 19 21 20 21 19 20 25 26 28 30 30 36 42 39 33 34 34 37 38 41 43 47 49 50
20 17 14 16 17 18 16 21 28 30 29 30 31 27 23 22 17 14 20 27 27 22 21 26 24 25 27 27 28 29 34 34 34 34 34 37 39 38 39 41 44 46 46 46
18 17 14 10 11 16 16 18 26 28 28 31 33 36 33 29 23 30 25 26 23 27 29 32 33 32 31 32 32 35 35 36 38 40 39 39 42 44 42 40 40 42 43 45
18 17 15 16 16 14 13 15 19 19 20 26 30 31 28 25 27 22 21 28 30 32 26 28 33 36 34 32 32 35 35 38 40 42 43 43 39 37 39 38 38 39 39 41
22 20 16 12 10 19 18 13 12 12 15 16 18 19 30 32 27 29 29 30 33 31 32 36 35 33 33 34 34 33 34 34 35 35 38 39 40 41 41 43 43 43 43 45

GFSCGP_500_spd_099.txt.gz
Wind_Speed
50 50 50 46 45 46 47 47 48 49 50 49 48 47 46 48 47 49 49 49 49 50 49 46 41 39 39 31 31 35 32 31 26 31 26 18 16 17 17 18 19 18 15 19
49 48 46 44 45 46 47 45 44 45 46 48 46 42 43 46 48 48 46 43 45 44 46 44 39 38 41 35 33 38 34 31 28 30 29 20 16 18 16 17 18 18 16 16
47 48 45 43 42 43 42 43 43 43 43 43 43 38 40 46 46 47 43 39 38 38 40 41 39 39 43 37 34 34 36 34 29 30 29 21 17 16 15 16 16 15 15 15
47 49 46 43 42 39 38 38 40 40 40 39 38 43 40 38 37 38 39 38 38 39 37 36 38 41 40 35 36 36 37 35 32 29 27 22 18 15 13 14 15 15 12 11
37 37 40 43 36 35 37 38 38 36 36 37 36 38 40 36 36 40 40 39 39 40 41 39 38 38 37 38 38 37 39 38 32 30 26 22 19 15 13 13 13 15 12 11
36 37 33 31 31 33 34 34 32 32 31 33 30 30 33 36 39 35 31 33 36 38 41 41 38 39 41 40 39 38 38 37 31 30 26 21 20 15 13 12 11 13 11 12
35 31 31 31 31 31 32 30 29 29 28 28 28 28 26 33 36 28 27 28 34 35 35 38 36 38 40 39 38 36 38 35 32 30 27 23 21 16 13 12 10 12 10 11
33 32 28 29 30 30 29 28 27 27 25 24 23 22 26 30 26 22 24 27 28 30 32 35 33 35 40 40 38 34 37 37 35 30 28 24 21 19 14 13 11 10 10 8
31 32 31 32 31 28 28 27 26 25 25 24 21 21 24 23 15 19 22 18 22 24 29 32 37 35 38 38 36 34 38 38 38 29 28 25 22 20 17 15 13 11 8 7
32 32 33 30 29 28 29 26 25 24 24 23 22 21 20 16 14 16 18 19 21 26 28 31 32 39 39 34 34 38 40 39 38 29 29 27 25 22 20 18 15 14 10 7
30 28 28 27 30 30 25 25 26 24 23 24 23 21 11 11 11 16 21 22 23 23 24 25 29 38 40 36 41 34 39 39 31 29 30 29 29 25 23 21 19 17 15 12
27 25 24 24 25 25 25 27 26 24 23 24 25 20 17 16 19 18 17 16 21 19 24 28 30 32 34 42 39 34 40 36 32 29 29 28 27 27 26 24 22 20 18 17
23 24 24 26 26 25 24 25 25 24 23 24 25 21 20 18 18 22 18 15 12 22 30 30 32 34 43 42 39 40 39 37 33 31 29 28 25 27 28 25 24 23 21 20
22 22 22 24 24 24 24 24 24 24 22 20 19 13 19 18 16 17 25 16 12 22 27 34 34 41 44 42 42 42 42 39 35 31 28 29 28 27 28 26 25 25 24 24
22 21 23 26 25 25 23 24 24 21 20 18 19 16 16 17 21 17 17 10 5 18 22 38 39 41 45 43 40 38 41 40 36 33 35 30 29 30 29 29 27 26 26 26
13 20 20 19 25 27 23 24 23 20 20 18 19 14 15 16 17 25 26 21 20 8 21 31 40 41 43 38 39 39 42 42 41 37 35 29 35 34 35 32 30 28 27 29
15 13 16 22 24 24 21 20 21 19 17 22 20 17 16 17 18 19 25 16 14 17 24 22 43 48 46 49 47 46 43 42 40 36 34 27 30 30 30 29 31 32 30 29
13 15 15 20 21 22 20 17 17 13 14 15 14 12 10 8 8 12 19 16 17 18 21 33 26 34 45 44 46 47 47 47 43 39 36 29 24 21 24 25 25 27 31 33
15 13 13 14 17 17 18 15 14 11 13 13 11 9 9 7 12 13 14 17 21 21 23 25 32 41 36 39 42 46 52 38 41 38 29 26 29 28 29 28 27 28 29 31
17 16 14 15 13 12 14 17 16 14 13 15 14 15 18 9 9 9 21 22 30 24 18 21 23 25 38 50 49 55 52 50 49 34 30 34 33 33 33 33 35 33 33 35
22 19 19 21 19 17 14 16 17 16 16 16 16 17 22 17 9 11 9 18 15 14 22 24 17 21 26 26 42 63 56 55 56 42 41 42 40 39 38 37 39 40 40 42
18 15 14 16 17 16 18 20 21 21 19 18 19 20 22 25 17 12 11 10 14 13 13 16 22 17 18 21 26 28 30 38 47 48 51 47 42 43 39 35 34 34 38 41
17 16 11 11 14 13 15 17 20 21 22 22 24 23 26 24 23 20 18 19 13 12 21 17 20 20 16 18 21 23 26 32 35 27 27 28 34 45 49 43 40 39 39 40
15 16 16 13 14 9 11 12 16 20 22 24 25 27 31 30 27 17 19 24 24 19 12 15 21 23 24 24 23 24 27 29 30 31 31 32 35 36 36 38 38 41 43 44
18 16 14 13 14 13 12 15 13 15 16 18 21 25 32 32 36 37 28 31 25 20 24 25 25 25 25 27 27 30 31 32 34 35 36 37 37 39 41 40 41 40 39 39
16 16 15 15 12 13 13 14 12 11 10 10 13 14 21 28 27 26 29 27 29 31 30 28 27 28 29 31 28 27 30 32 34 35 32 32 31 33 35 35 36 36 37 38

GFSCGP_500_spd_102.txt.gz
Wind_Speed
58 60 59 59 58 56 53 52 51 54 53 50 50 51 50 49 45 47 48 47 45 47 48 49 48 47 46 43 40 40 39 39 34 28 28 27 26 24 21 21 23 22 22 21
54 55 55 56 56 54 53 52 50 52 51 51 49 49 49 48 47 47 49 47 46 47 49 49 48 48 48 46 43 42 42 41 37 30 29 28 27 25 21 22 22 22 19 19
48 48 52 56 52 50 50 49 49 48 49 49 50 48 50 49 49 49 46 45 45 47 48 48 47 46 47 47 45 41 43 42 39 33 30 29 27 26 21 22 20 21 18 17
46 50 50 49 45 44 47 45 45 46 45 44 46 48 47 43 44 45 45 43 44 44 43 43 43 45 45 43 45 44 43 46 42 34 31 30 28 25 23 22 17 19 17 16
39 43 47 46 41 41 43 43 41 38 39 42 42 44 46 41 38 39 41 39 39 39 38 38 40 43 45 46 44 45 44 47 42 35 33 30 29 27 24 22 17 17 15 16
37 37 44 44 43 44 45 42 38 35 36 41 35 37 41 40 34 38 36 35 37 36 38 40 41 42 45 46 42 45 43 45 40 36 33 30 29 28 25 21 18 14 15 15
34 29 37 41 45 44 41 33 32 32 35 36 33 33 35 36 31 29 29 30 33 36 39 39 42 45 45 45 44 41 43 42 39 35 34 31 29 29 27 21 17 13 15 14
32 34 33 31 27 27 27 28 29 29 29 30 28 29 32 29 30 28 26 27 30 33 39 38 39 40 42 41 41 41 40 43 36 34 33 31 29 31 28 22 17 12 13 14
30 30 27 25 23 26 27 28 27 27 26 25 26 22 25 26 28 29 27 27 32 36 35 31 31 35 35 35 36 39 43 38 38 31 31 33 31 31 29 24 19 13 11 11
28 25 28 28 26 26 28 25 24 24 24 22 21 19 25 23 27 28 28 31 31 32 28 24 29 34 33 36 37 41 42 41 33 31 34 35 31 31 29 26 21 16 13 11
25 22 21 23 26 26 22 22 23 23 22 21 20 22 20 22 23 24 28 27 29 31 27 26 29 33 38 38 41 43 43 44 33 33 37 34 29 31 30 29 23 20 17 14
24 22 20 24 23 22 22 23 22 22 22 21 19 19 19 22 23 25 23 22 27 30 29 30 33 36 40 41 41 44 53 39 35 36 39 35 29 31 31 31 27 22 20 17
23 24 21 22 24 24 23 22 20 20 19 19 17 19 20 18 20 25 24 24 25 28 29 26 32 33 38 42 47 50 40 38 40 40 37 32 30 31 28 29 30 28 24 22
21 22 23 21 20 19 18 17 19 20 19 18 17 13 17 11 12 21 23 24 26 27 22 25 31 37 37 43 46 50 41 40 41 39 37 36 33 32 31 29 29 31 28 26
17 21 22 21 19 19 18 21 20 20 20 16 15 13 15 11 13 16 23 21 24 24 23 26 31 36 37 37 38 40 42 36 41 39 39 34 32 34 33 32 31 31 30 30
29 17 16 18 22 21 20 20 20 20 18 18 15 14 13 11 14 15 17 25 21 24 11 24 29 35 34 38 37 41 40 41 43 40 41 39 38 36 37 39 37 32 31 30
15 16 16 15 15 19 20 21 19 19 19 18 16 17 17 14 14 14 16 20 23 25 19 10 25 37 36 41 43 47 50 46 44 44 44 43 40 37 39 32 36 39 36 33
9 8 7 8 13 17 17 17 16 17 17 15 14 11 13 14 11 11 10 14 17 20 16 18 26 39 39 42 46 48 50 49 53 48 45 44 39 39 37 30 38 25 27 29
6 6 7 8 10 13 15 16 15 17 16 14 13 10 12 13 13 17 13 19 21 20 20 20 19 33 40 41 45 48 47 51 51 48 46 44 43 41 43 33 32 32 30 28
2 6 10 10 7 8 14 15 15 15 16 15 14 14 15 14 18 16 17 14 19 24 26 24 27 28 38 38 45 46 49 52 56 54 52 49 48 52 49 35 30 31 32 32
9 9 10 13 14 13 12 12 14 15 17 16 15 17 21 19 19 11 8 7 4 15 20 23 22 24 28 28 50 54 53 53 50 50 54 61 55 41 37 35 37 39 37 34
12 12 11 12 17 19 17 16 13 14 14 16 17 17 20 22 21 18 13 11 11 13 14 14 20 23 23 24 26 27 46 60 63 57 61 49 45 54 48 47 43 43 42 40
13 14 12 11 12 15 18 20 20 20 19 19 21 22 22 26 24 20 18 20 17 9 9 13 13 18 15 20 21 25 28 28 28 31 38 45 55 57 56 49 49 46 46 43
16 14 15 15 13 12 14 15 19 20 21 22 23 24 24 27 30 27 24 24 21 25 15 12 13 14 16 18 20 19 20 23 26 28 26 30 29 32 32 33 33 40 42 45
16 15 14 14 14 13 14 15 17 16 16 16 19 21 23 25 30 32 29 31 34 29 27 25 21 24 25 21 19 20 22 24 26 27 29 29 31 31 32 33 34 36 39 39
16 14 14 14 13 13 14 16 17 16 15 13 14 14 17 18 24 27 27 29 33 31 31 34 36 30 29 28 25 25 25 25 25 25 27 29 30 30 31 32 32 35 37 39

GFSCGP_500_spd_105.txt.gz
Wind_Speed
58 61 62 50 56 57 61 54 55 64 62 60 58 57 54 49 52 53 52 50 47 47 47 46 48 47 48 46 43 40 42 41 44 45 43 37 32 28 27 25 26 26 26 26
54 61 50 50 52 59 62 62 64 63 58 62 60 55 53 52 51 51 50 47 48 48 47 48 48 48 48 47 45 42 40 41 44 46 46 42 36 28 28 26 26 27 26 27
47 47 51 49 52 60 65 64 60 56 55 60 59 54 52 49 50 50 49 50 49 48 48 49 49 49 49 47 48 46 43 40 42 43 47 47 40 30 27 26 25 27 26 26
41 43 46 46 48 53 62 61 55 54 55 55 47 49 34 49 52 50 51 50 50 49 50 49 48 48 49 49 48 46 47 41 42 41 45 47 42 33 28 26 26 28 27 26
39 40 43 49 45 48 53 48 44 47 48 50 50 49 39 43 44 46 47 48 48 49 46 46 46 47 47 45 45 43 45 43 43 40 44 47 40 35 28 26 26 27 26 26
30 38 41 35 36 44 42 41 41 36 33 44 44 42 24 30 41 45 43 42 44 44 44 43 44 44 43 43 43 42 42 42 42 40 44 46 38 38 28 27 25 26 26 25
33 32 34 33 34 38 42 38 30 30 34 41 25 33 25 34 39 34 38 40 41 43 44 44 42 41 42 41 43 44 40 41 41 38 44 45 39 39 28 27 23 26 25 23
31 29 24 33 32 33 38 37 31 29 22 24 31 26 22 39 29 29 33 38 36 39 40 41 40 41 41 42 44 46 43 43 42 39 44 43 43 36 28 26 23 26 23 21
29 26 23 20 24 32 32 36 33 18 25 25 15 21 28 27 33 28 31 32 33 33 35 37 39 40 39 42 46 45 43 43 44 41 42 43 40 34 28 25 23 27 23 21
24 30 22 20 26 29 20 32 33 29 24 21 14 15 22 20 27 26 28 27 28 32 34 36 36 38 40 40 40 40 41 42 42 39 42 42 39 34 28 23 25 27 25 23
9 23 16 21 25 23 29 26 26 25 25 19 15 19 25 22 23 23 27 25 27 32 35 36 36 35 36 37 39 39 38 41 35 40 41 46 41 30 26 23 25 26 26 24
24 19 19 16 22 22 21 21 24 24 24 23 20 19 16 19 22 25 25 23 25 32 34 37 34 32 36 40 39 35 34 34 37 41 48 49 32 29 27 23 25 26 28 24
24 19 15 16 22 23 21 24 25 21 18 19 18 15 18 22 22 26 23 25 27 29 31 35 32 33 35 34 33 36 35 37 43 50 51 41 32 29 26 26 25 26 29 29
20 17 17 18 14 19 20 19 21 21 19 19 15 24 22 17 15 20 20 23 25 29 33 35 30 31 33 38 40 41 39 42 49 53 51 37 34 34 28 29 26 25 28 30
22 19 22 17 20 19 19 19 19 19 17 14 18 21 17 14 17 19 18 21 23 26 30 33 31 29 32 36 42 45 43 47 55 54 47 38 40 38 32 29 30 30 30 30
18 20 24 16 19 19 17 17 16 15 15 17 17 19 14 16 16 16 17 19 17 24 28 25 28 36 36 36 41 44 45 48 51 51 42 43 44 40 36 35 34 34 34 34
18 12 18 17 16 16 17 19 15 15 19 16 16 17 16 17 16 17 16 18 18 21 23 25 25 22 38 37 44 44 48 50 51 51 41 47 44 40 37 37 36 37 36 35
17 32 22 22 19 18 18 17 15 19 13 15 15 16 11 17 18 18 17 17 16 17 16 20 17 6 30 32 41 43 43 43 42 45 46 43 42 42 42 42 40 42 39 39
10 10 10 7 7 8 13 14 15 16 13 14 15 16 17 18 18 17 18 19 19 20 19 18 20 20 14 41 38 34 43 42 45 47 45 46 48 47 45 44 45 41 38 38
7 4 5 5 6 11 14 12 15 13 15 16 16 17 18 17 17 17 17 19 23 20 20 20 21 21 27 21 49 44 47 47 46 44 61 54 57 52 50 48 45 40 40 49
4 4 5 10 12 11 9 11 13 15 18 17 17 17 19 20 20 17 15 14 9 10 11 15 19 23 25 28 25 44 49 50 49 51 43 66 54 52 53 50 50 46 44 34
1 1 3 5 14 15 16 14 12 14 16 18 18 18 18 19 20 19 19 17 18 17 18 15 16 15 19 24 25 31 29 54 53 55 64 65 59 62 59 56 56 57 45 43
5 4 5 7 11 16 19 20 21 19 18 17 18 18 19 19 20 20 18 19 22 21 20 15 15 17 17 20 21 27 26 32 28 38 42 42 50 53 59 64 55 63 52 52
10 9 8 9 13 13 15 17 19 23 24 24 25 25 25 24 25 26 24 22 22 25 27 26 24 19 18 21 23 22 19 20 23 23 23 24 33 35 44 50 59 64 60 59
13 12 11 11 15 17 16 16 16 17 19 20 21 23 24 25 25 25 27 24 24 27 31 30 32 29 27 30 31 29 28 27 26 24 24 25 28 27 27 27 30 32 34 37
12 12 13 15 17 16 17 18 19 18 18 18 18 18 18 19 19 20 22 23 23 23 29 35 38 38 36 35 34 34 36 33 31 30 29 28 29 28 30 29 30 32 33 36

GFSCGP_500_spd_108.txt.gz
Wind_Speed
47 52 61 62 62 59 56 55 52 56 59 51 61 64 60 61 52 55 54 54 50 48 48 45 47 45 43 42 42 46 41 33 33 38 41 42 41 39 35 34 34 32 28 26
42 51 50 48 52 55 56 53 51 46 35 32 42 36 43 60 59 55 54 52 47 48 49 44 46 45 43 44 46 47 40 36 32 37 41 44 44 40 39 33 36 34 31 27
43 37 34 45 48 52 54 51 51 49 40 36 28 49 54 61 57 49 50 49 46 46 47 46 44 44 48 48 48 47 45 38 35 36 41 45 45 40 41 34 33 35 33 27
38 30 28 34 45 45 46 42 48 50 40 39 36 47 55 50 52 53 49 47 46 51 51 48 47 48 49 48 47 47 46 46 39 38 39 43 41 41 42 38 29 33 32 27
30 28 25 23 33 38 40 34 39 49 55 52 49 45 46 19 16 35 58 54 50 47 47 47 48 48 48 49 49 48 49 44 42 35 36 40 41 42 42 40 29 34 29 27
27 22 26 33 16 34 35 38 40 45 48 56 55 53 45 33 28 32 44 49 42 48 51 52 50 49 48 46 47 47 48 48 41 38 35 37 39 41 41 39 29 33 30 25
29 32 29 29 28 32 39 40 39 37 40 41 48 47 46 31 37 36 41 34 42 40 43 46 44 44 44 42 43 44 46 48 44 37 35 37 38 40 41 37 29 32 29 25
24 20 20 27 32 33 34 33 32 34 37 36 27 25 28 37 29 26 31 32 35 44 45 46 45 44 43 43 42 44 45 46 45 38 37 36 40 38 40 33 30 32 27 26
17 23 28 15 25 26 23 24 24 28 14 23 30 23 19 22 33 35 34 32 36 34 33 39 41 42 41 41 42 44 45 45 46 42 40 37 38 38 40 28 32 33 25 26
14 18 23 19 15 22 21 21 34 21 20 22 25 23 24 42 43 37 31 32 34 29 32 36 37 37 39 40 41 41 43 46 46 45 42 39 38 37 35 31 32 31 24 25
16 15 16 17 18 17 20 29 30 28 18 16 18 20 22 30 24 22 26 29 26 29 31 32 35 35 37 37 38 38 38 38 41 42 34 36 35 36 34 32 36 27 26 24
5 9 16 10 14 24 18 24 24 29 25 23 24 23 14 9 10 21 17 19 24 28 29 31 32 33 34 35 36 33 32 32 34 32 35 36 35 37 36 38 41 22 25 25
10 0 18 16 16 23 19 26 33 19 24 31 17 14 13 13 15 21 20 21 23 26 28 28 29 32 31 31 34 32 33 32 29 32 34 37 37 39 41 44 34 22 24 25
21 9 16 16 15 18 19 24 23 27 18 26 21 15 20 13 9 16 16 18 20 23 25 27 29 31 30 28 31 33 34 32 33 35 35 36 40 43 47 45 30 27 26 25
23 12 12 9 12 17 19 19 19 17 18 19 21 25 23 19 17 16 17 18 17 19 23 25 28 31 33 28 29 31 34 34 35 36 38 40 43 47 48 41 30 26 27 27
12 14 13 16 22 21 17 21 21 20 20 20 21 21 22 19 20 19 17 18 17 18 19 24 27 29 30 30 31 33 36 40 40 40 42 45 49 51 51 41 36 38 36 32
17 13 21 9 15 20 17 15 17 15 17 22 23 18 14 15 18 20 19 17 16 16 18 22 24 23 26 30 31 38 38 41 45 46 46 43 45 51 47 40 39 41 39 38
12 7 12 12 8 10 13 15 16 15 16 15 16 17 18 17 19 19 21 18 18 17 17 14 15 19 18 17 26 40 36 40 45 47 48 48 48 46 50 43 43 42 38 42
21 23 11 12 16 16 13 14 13 14 13 12 15 16 17 18 17 15 17 17 18 19 19 15 16 16 19 23 20 30 35 43 44 45 51 49 49 50 45 41 46 44 40 46
13 13 14 12 8 7 7 7 11 11 13 14 15 16 18 19 19 15 14 14 15 16 18 16 17 17 19 18 18 27 39 42 42 48 51 50 53 56 46 44 44 44 42 44
8 6 4 5 5 7 7 7 9 12 15 14 15 17 17 19 19 18 17 16 18 18 14 11 12 15 17 20 22 21 14 28 51 50 45 48 49 56 44 46 58 52 48 56
6 7 4 5 7 10 10 10 10 11 11 13 14 17 18 19 20 21 21 19 17 19 17 20 20 19 18 18 21 23 20 23 25 37 58 57 70 59 50 73 59 56 60 58
5 4 4 4 6 8 10 13 15 16 14 14 15 15 17 18 18 18 17 17 17 19 20 21 22 22 20 17 18 20 20 17 20 23 31 40 51 49 56 54 52 55 61 55
7 7 8 7 8 10 11 13 16 17 20 21 21 22 22 22 22 23 23 23 22 23 24 23 22 24 26 27 28 27 26 24 22 20 19 23 29 33 45 49 62 66 61 65
10 9 10 10 11 12 14 16 17 17 18 19 19 20 23 25 26 26 25 25 24 25 26 25 24 27 30 31 32 32 33 33 34 31 30 29 26 25 27 31 30 36 35 39
16 14 13 13 14 15 15 17 19 20 19 19 19 19 19 19 20 20 20 20 20 22 24 25 23 24 28 33 34 35 35 33 33 32 31 32 33 34 35 33 31 31 30 28

GFSCGP_500_spd_111.txt.gz
Wind_Speed
54 57 66 54 50 51 57 64 63 58 52 48 51 57 59 59 55 58 53 51 52 50 48 46 46 42 40 41 42 42 41 37 37 29 31 40 37 35 33 36 33 32 32 31
52 54 43 38 40 46 50 55 57 57 54 29 33 48 53 49 54 56 53 52 49 52 47 45 43 44 39 39 37 41 39 39 38 32 32 42 40 39 36 36 35 32 33 30
50 40 37 36 36 40 46 49 48 49 46 41 42 39 41 40 41 42 53 54 53 47 44 42 42 45 45 40 38 40 40 37 39 38 31 37 40 40 38 35 39 37 33 28
40 33 37 31 28 33 40 39 41 36 36 43 37 45 40 35 40 51 53 39 40 46 46 46 49 47 46 47 45 41 41 44 44 41 33 37 41 39 37 37 41 39 33 28
24 30 29 27 20 7 27 27 29 32 40 42 43 32 39 40 34 37 33 34 42 47 52 53 47 45 45 45 44 44 42 42 42 40 38 37 41 39 38 37 40 39 35 27
19 22 24 22 21 17 16 25 29 34 37 40 49 31 33 30 23 29 37 41 46 49 48 46 44 45 44 43 43 44 44 45 44 43 40 35 38 41 38 37 37 36 34 26
12 19 23 23 20 21 30 30 32 33 34 40 42 36 32 26 28 23 29 35 39 39 43 51 50 47 45 45 42 42 45 46 45 42 38 32 37 41 41 41 37 36 31 25
14 20 16 22 24 23 28 32 29 31 34 32 33 39 40 46 37 33 36 38 33 34 41 43 42 47 46 43 41 42 41 41 41 42 38 30 37 40 41 40 38 38 31 25
17 23 22 16 19 24 28 30 27 26 27 24 24 22 21 35 42 49 47 42 38 34 34 37 40 44 42 40 40 39 40 42 43 43 41 36 37 39 39 38 39 36 31 26
16 10 12 16 21 24 21 17 29 30 20 13 11 23 30 33 47 41 49 42 38 37 30 27 33 38 41 44 44 42 41 41 42 44 45 40 35 40 41 39 39 35 28 26
3 8 8 22 10 11 17 22 25 27 26 25 20 29 19 38 21 19 55 38 38 37 26 32 32 34 37 38 38 39 40 42 42 44 44 40 37 39 41 39 40 35 29 26
12 14 15 9 10 12 16 18 31 26 26 11 19 21 19 44 20 23 23 34 36 38 31 32 33 34 32 34 35 36 38 39 39 40 39 36 34 38 40 41 40 31 31 30
3 13 10 11 12 11 14 20 27 26 26 12 14 13 17 35 18 5 16 18 19 21 22 27 30 32 31 32 34 35 35 32 33 33 34 35 36 38 39 41 37 32 34 34
2 5 9 11 9 11 13 14 28 18 17 19 14 12 14 10 6 8 12 12 15 18 22 25 26 28 31 32 30 28 28 28 29 31 30 32 34 35 39 38 36 38 39 37
11 7 3 6 8 15 11 16 14 24 20 18 6 18 5 14 9 4 7 10 14 18 19 19 20 24 28 30 27 24 22 22 27 28 30 31 29 33 40 38 39 41 40 39
5 7 9 12 14 19 13 28 11 18 23 16 24 11 21 16 15 12 11 14 14 17 19 19 18 19 22 24 23 20 21 24 28 31 32 32 32 35 40 38 39 43 40 40
9 6 6 23 24 18 15 19 18 16 20 17 14 14 15 12 12 15 16 15 15 15 15 15 16 16 15 16 18 18 20 23 29 33 34 36 37 39 40 38 41 42 41 38
10 9 3 7 8 16 13 6 7 14 12 14 16 17 18 12 15 15 14 15 16 17 15 14 12 10 12 14 15 16 16 26 33 35 35 39 41 43 41 40 40 41 44 44
10 12 2 7 15 19 8 6 7 9 12 14 17 17 16 16 18 17 15 13 13 11 11 11 15 11 13 16 16 21 24 20 24 37 38 41 43 46 44 41 40 42 45 43
7 10 10 9 18 11 5 2 6 8 11 14 13 14 17 17 17 17 15 12 10 10 11 10 8 8 11 14 15 17 21 17 30 36 35 41 40 41 42 46 44 48 42 43
11 9 7 8 7 10 5 3 6 6 8 9 12 14 15 15 16 18 17 16 16 16 14 11 10 12 13 13 14 15 16 15 17 20 32 40 42 54 46 53 55 47 51 51
7 7 4 4 3 5 5 6 7 6 6 8 10 12 14 15 15 16 18 19 19 16 14 13 13 13 14 13 14 15 15 16 19 22 21 25 34 54 49 64 51 60 71 59
6 3 5 5 4 3 5 9 11 12 12 11 12 13 13 13 13 14 15 16 16 17 17 17 16 15 17 17 17 18 20 21 20 20 21 22 26 30 39 50 60 66 55 55
4 6 8 7 7 5 4 6 9 12 14 15 18 20 20 20 21 21 21 21 21 22 23 23 23 20 20 21 23 22 22 24 24 24 28 27 25 20 20 27 30 36 45 48
10 7 8 9 9 9 9 9 11 13 14 15 17 19 19 20 21 22 23 22 22 22 23 23 24 24 22 24 26 28 29 29 31 30 29 30 33 34 33 28 25 28 28 23
15 14 14 15 13 13 13 13 14 16 17 18 18 20 20 19 19 20 20 20 20 21 21 21 21 22 21 20 24 27 28 30 32 33 33 33 34 32 32 34 36 37 35 33

GFSCGP_500_spd_117.txt.gz
Wind_Speed
72 74 81 86 90 93 95 92 88 88 75 74 80 80 72 63 72 68 63 61 66 69 70 66 67 59 57 51 46 42 42 41 39 38 37 36 33 34 38 37 34 30 31 32
72 74 76 77 78 58 54 56 60 56 45 55 71 75 70 71 69 64 60 60 61 67 73 64 65 63 62 55 49 44 43 42 35 33 33 36 35 35 38 38 36 27 32 33
66 59 57 48 38 34 35 38 35 36 34 47 56 64 69 66 63 60 55 51 55 63 65 76 75 71 64 56 48 44 43 41 34 32 34 34 35 38 36 32 35 33 33 36
50 43 34 25 27 33 31 25 26 23 31 36 37 49 54 54 55 54 52 46 54 60 67 64 71 67 57 51 48 44 45 41 36 35 35 33 35 38 36 35 35 36 31 37
37 35 30 28 26 29 20 20 17 25 26 28 28 33 22 28 30 33 47 42 47 52 57 63 54 50 51 49 46 43 41 41 38 37 37 37 36 37 39 39 39 35 37 38
29 27 28 32 29 28 20 17 16 21 20 25 19 20 20 23 27 29 32 39 44 45 49 57 52 51 51 52 50 45 41 43 44 41 40 36 38 38 40 39 44 36 38 42
20 22 26 22 19 20 14 14 13 14 15 4 15 17 18 17 24 25 30 35 37 39 40 45 50 50 53 50 47 44 43 43 45 44 40 40 40 42 41 34 30 31 36 39
16 16 13 9 5 9 15 15 14 13 9 1 13 13 19 22 25 27 34 29 37 38 41 43 46 47 49 48 42 42 46 47 44 44 45 43 43 42 39 37 36 41 42 43
15 16 12 8 7 8 11 12 7 12 7 8 13 11 24 27 30 15 31 38 41 44 43 46 46 47 44 42 41 41 42 43 43 46 47 45 43 43 40 40 42 43 42 42
21 20 16 22 14 10 12 13 15 15 11 5 13 12 22 21 19 20 19 34 39 31 52 38 34 38 41 42 40 41 45 47 47 47 48 47 44 43 42 42 42 41 44 45
26 28 21 9 8 14 11 13 16 14 15 5 5 18 21 16 11 13 17 11 21 22 29 34 36 37 35 35 35 38 42 45 46 47 48 48 48 47 44 40 44 45 46 46
23 26 10 6 5 6 5 11 16 17 14 13 17 4 18 21 18 23 24 21 22 33 34 37 34 34 33 32 35 40 39 42 44 44 45 45 46 46 42 39 45 46 46 45
19 22 7 8 6 6 10 6 15 17 16 15 16 17 6 13 14 25 24 24 25 34 31 42 38 39 42 41 38 32 37 40 41 44 48 49 52 53 49 45 45 44 41 43
20 17 13 13 6 4 3 9 9 8 8 17 10 14 11 11 11 12 9 25 24 26 30 35 41 35 28 34 39 37 36 39 41 42 42 43 43 42 43 40 39 38 40 40
14 8 10 10 12 3 6 7 11 5 4 17 20 13 11 7 9 12 8 11 20 21 32 26 22 22 24 27 29 31 32 34 39 40 39 41 43 43 41 39 37 36 37 38
7 10 10 19 19 8 0 10 15 18 16 17 13 8 6 7 6 5 8 8 7 4 3 6 12 19 22 21 22 25 27 30 34 37 37 37 39 41 41 41 41 38 36 36
6 5 5 7 21 21 18 25 20 21 21 10 1 2 3 6 6 4 5 4 2 2 3 6 9 11 12 13 15 16 19 23 28 31 34 34 36 37 39 42 42 40 37 37
13 11 11 5 7 8 13 12 10 7 9 5 5 5 6 5 3 3 4 3 2 2 4 6 8 10 11 13 15 16 17 19 24 26 31 31 34 34 35 35 37 39 37 37
7 11 10 6 10 7 11 7 5 5 3 1 2 2 3 4 4 3 4 4 3 5 5 7 7 10 11 15 16 17 20 19 18 22 25 28 29 34 35 34 36 39 38 38
8 13 10 9 11 8 4 3 2 2 2 1 1 2 2 1 3 6 6 8 9 10 10 11 11 9 9 12 16 16 21 20 20 20 21 22 20 24 30 33 33 37 43 38
13 13 13 13 14 9 3 2 1 1 1 1 1 2 2 3 6 5 6 8 12 12 12 12 13 14 15 15 16 16 17 15 15 17 17 19 22 20 24 28 34 36 43 47
16 15 15 16 17 16 7 6 3 2 2 4 4 4 6 6 5 6 7 9 9 11 10 12 13 14 14 15 16 18 19 20 20 19 19 19 17 16 22 25 30 43 42 37
7 10 13 11 10 10 10 8 6 5 6 7 8 9 8 9 12 13 14 14 15 15 15 16 16 17 18 18 20 21 21 22 24 26 26 24 22 22 22 23 25 26 27 40
7 6 7 7 6 5 6 6 5 4 4 5 7 8 9 11 13 14 16 18 20 22 24 25 26 26 27 28 29 31 30 28 28 30 31 31 31 29 28 28 29 28 26 28
11 8 6 8 8 7 5 4 4 3 4 6 8 10 12 14 17 19 21 22 25 26 26 26 28 29 30 30 31 31 32 33 33 33 34 34 36 35 34 33 33 34 34 33
19 15 12 9 7 7 7 7 6 6 7 10 13 14 16 17 19 21 23 25 26 28 30 31 31 32 33 33 33 34 34 35 35 34 35 36 37 38 39 39 39 38 38 40

GFSCGP_500_spd_120.txt.gz
Wind_Speed
50 53 59 64 71 75 82 87 89 90 89 94 105 109 109 104 100 104 98 96 85 72 63 69 73 75 75 74 72 71 55 48 46 47 46 42 35 34 36 34 36 35 34 35
55 62 67 69 74 77 76 77 69 71 64 73 85 76 76 80 89 93 87 81 73 66 65 66 74 73 73 74 75 72 58 52 49 47 45 42 39 37 37 37 38 37 36 37
57 61 62 66 67 62 59 46 45 45 40 47 49 53 45 44 41 47 62 68 68 66 66 64 74 76 74 73 72 69 59 55 52 48 44 41 42 38 39 38 38 36 37 39
55 58 58 55 51 41 43 40 39 34 27 24 27 44 32 30 31 42 50 61 66 68 65 64 71 76 78 76 68 63 62 51 50 47 39 37 40 41 39 40 41 39 41 42
50 47 43 34 33 38 36 38 35 29 17 26 20 34 18 19 26 30 34 44 57 54 56 60 65 72 72 72 66 67 62 48 46 44 39 37 41 43 40 36 33 40 41 41
33 24 27 31 33 35 34 28 26 18 18 20 6 18 8 8 13 16 23 31 46 48 50 55 57 63 71 67 72 61 58 54 49 46 42 41 42 43 40 37 34 36 39 43
19 23 27 28 28 28 22 13 11 12 13 8 10 10 9 16 2 13 16 20 34 41 44 46 51 52 56 61 66 54 63 56 53 47 43 43 43 43 40 40 40 42 36 41
19 22 27 24 24 24 19 11 9 11 10 6 4 4 12 12 4 19 8 16 22 28 34 37 42 43 45 45 43 44 49 48 46 45 45 46 45 44 42 43 42 43 40 39
19 25 26 27 25 21 16 9 9 11 11 10 8 14 7 12 15 2 8 17 20 25 31 37 37 38 39 41 43 41 41 44 46 46 46 47 45 44 45 46 46 44 46 46
22 20 25 23 20 13 10 12 11 8 10 6 9 3 6 4 10 8 10 22 19 21 30 33 34 38 37 40 42 44 44 45 47 47 48 49 48 47 47 47 48 44 46 47
23 24 22 18 14 10 8 6 9 11 15 19 19 7 7 11 5 6 11 7 6 26 26 28 32 33 32 33 37 41 41 42 45 45 46 48 50 50 50 47 46 46 46 48
18 23 18 17 14 3 5 9 8 11 10 15 15 9 18 5 10 11 9 2 4 9 27 34 32 42 38 35 36 38 36 35 37 38 42 45 48 51 50 49 48 47 49 50
15 21 12 14 17 5 9 6 5 8 12 15 13 11 17 3 9 10 14 16 10 12 18 25 16 20 34 32 30 31 31 29 31 35 37 39 42 45 47 47 45 43 47 50
13 21 15 14 12 8 4 8 4 4 6 10 13 7 10 10 8 2 4 3 13 12 19 19 28 27 28 26 27 30 32 37 37 32 33 35 36 39 43 47 47 46 44 48
5 7 11 13 9 3 6 6 6 3 11 2 14 14 14 13 12 10 10 9 7 8 11 14 23 26 32 35 32 26 28 31 35 37 39 38 39 41 42 44 43 42 42 44
4 2 5 14 3 6 3 7 6 2 17 17 11 7 12 11 14 13 12 11 9 8 8 9 12 12 15 22 26 20 23 27 31 31 36 38 39 43 46 44 43 41 41 38
14 5 1 3 12 10 12 16 12 13 12 8 6 7 8 11 12 10 7 7 5 7 5 4 3 6 10 10 13 18 20 24 27 31 33 35 37 39 39 42 42 43 42 41
13 10 12 13 12 5 21 14 12 10 7 3 2 3 3 3 3 5 6 4 3 3 3 3 3 5 6 8 12 14 16 17 19 21 25 28 30 34 38 40 42 40 41 43
11 9 12 12 11 7 11 6 6 5 4 1 2 2 2 2 1 0 3 2 1 2 3 4 5 6 8 11 13 15 16 17 18 19 17 19 23 28 29 33 37 37 37 39
13 11 12 11 9 11 7 4 4 4 4 4 3 2 1 2 2 4 3 3 7 9 9 11 11 11 11 13 14 14 13 15 17 17 17 20 22 22 25 26 28 35 35 36
11 10 11 13 12 11 9 3 1 2 3 4 2 2 2 3 4 3 2 3 7 11 12 13 13 14 16 16 18 18 17 17 17 16 17 19 20 20 20 23 25 29 34 39
15 16 14 16 18 16 10 7 7 5 5 4 3 3 3 2 1 2 3 4 5 7 10 10 12 14 15 16 17 17 18 19 20 20 21 22 23 24 24 23 24 23 27 31
12 12 16 13 15 19 16 13 10 9 8 6 6 4 2 2 2 5 6 8 9 11 13 15 17 18 20 21 23 24 25 26 27 28 29 30 32 33 32 31 31 30 29 26
10 7 8 8 10 8 8 10 10 9 7 5 3 2 3 5 8 10 12 13 14 16 17 18 20 21 22 23 24 26 29 32 33 34 35 37 37 39 39 39 38 37 35 34
13 10 7 9 8 8 8 8 7 6 5 2 0 4 7 9 11 13 15 17 19 21 22 24 26 26 27 28 30 33 34 35 36 37 38 39 39 39 40 42 44 42 42 41
23 17 13 11 9 9 8 6 6 5 3 3 6 8 11 13 16 18 20 23 25 27 27 29 30 31 32 33 34 36 37 39 40 41 41 42 43 45 45 45 46 47 48 47

GFSCGP_500_spd_123.txt.gz
Wind_Speed
36 39 43 47 51 54 59 62 64 66 69 86 85 91 85 86 95 99 101 99 94 89 87 78 69 69 70 70 70 69 66 65 63 58 49 47 38 38 39 37 38 38 33 33
37 43 48 53 58 59 65 69 71 70 74 78 78 77 71 75 78 76 92 104 108 103 101 96 73 71 74 75 73 74 70 70 65 63 54 51 45 44 44 43 43 39 35 35
42 47 54 58 61 62 60 57 59 62 61 50 53 51 45 34 38 53 57 57 67 89 100 100 82 69 74 76 76 76 74 72 68 62 56 54 47 47 46 41 40 41 39 38
44 50 55 58 50 44 43 39 42 43 41 40 33 34 24 17 21 20 23 26 25 36 57 70 65 67 71 75 76 77 77 75 72 67 63 58 53 50 44 41 44 47 46 42
45 50 45 30 30 28 31 38 39 32 26 18 15 25 22 20 15 16 16 17 18 18 27 46 55 66 70 75 74 77 76 73 69 67 67 64 58 56 47 42 47 49 49 44
46 40 26 29 31 39 32 31 27 17 13 9 16 22 11 9 24 17 17 17 13 16 18 29 41 56 67 72 72 71 67 67 65 62 67 68 63 55 47 44 44 44 46 43
36 25 26 29 35 37 29 22 16 10 13 7 15 16 11 26 33 16 14 8 5 9 14 17 22 40 58 66 70 68 64 60 62 65 64 58 60 52 47 45 44 43 43 41
20 21 26 27 29 30 24 19 14 10 13 13 16 18 21 24 27 23 12 11 9 4 11 19 23 30 41 53 60 66 63 64 62 61 61 60 58 51 47 46 42 41 43 41
22 19 23 23 25 27 21 16 12 14 12 16 22 10 17 19 24 24 15 9 8 6 16 19 23 27 34 42 47 54 59 55 51 66 52 64 60 53 52 46 44 43 43 42
22 18 21 26 22 24 19 10 12 14 10 22 23 24 25 8 17 21 16 7 8 8 12 21 24 28 32 36 39 39 42 46 46 43 60 58 64 50 52 46 46 47 45 46
21 17 20 26 17 20 13 12 9 12 14 14 20 22 25 9 11 15 13 5 8 11 10 16 20 27 29 30 32 33 36 37 38 39 42 37 41 43 42 47 46 47 47 48
18 17 18 19 17 19 9 6 6 9 12 16 18 16 23 11 6 6 12 10 11 6 19 21 19 17 23 21 23 28 28 28 29 27 31 33 37 43 43 44 49 48 49 49
15 14 14 17 17 13 12 9 6 6 11 11 15 21 16 2 4 7 12 11 7 6 7 14 21 27 23 30 20 23 28 32 31 36 37 32 30 32 36 42 47 52 52 50
12 12 15 20 12 14 13 6 3 2 7 13 16 11 5 3 4 4 10 11 9 8 4 9 15 15 15 23 27 36 31 26 30 27 24 26 26 32 32 36 42 47 46 44
11 8 9 14 14 8 4 4 6 4 12 13 8 10 10 9 7 8 10 11 13 6 1 9 16 16 15 21 16 20 25 24 24 26 31 33 33 32 31 35 37 39 41 43
8 6 7 13 16 8 4 5 4 3 10 13 12 9 12 11 6 7 9 8 10 8 8 8 6 5 10 14 17 23 24 25 26 27 27 29 30 34 37 38 38 39 40 39
14 14 6 1 10 11 7 8 7 7 8 8 11 10 12 9 8 6 4 4 4 6 10 9 8 8 3 1 7 13 19 24 20 21 24 28 30 32 33 36 38 40 41 45
12 18 14 11 8 6 10 12 12 12 12 7 4 5 1 4 6 4 3 1 2 2 3 4 4 2 1 2 4 6 10 13 17 20 21 21 23 26 31 37 38 41 43 42
16 15 18 16 10 10 11 10 11 12 10 8 2 1 1 3 5 6 4 2 2 2 1 3 4 5 4 5 8 10 12 13 14 17 19 18 17 17 17 20 27 29 32 37
16 17 16 12 13 12 11 9 9 9 6 5 3 3 2 2 3 4 4 4 6 8 9 10 11 10 11 11 12 12 12 11 13 15 16 17 16 16 16 16 17 19 20 25
13 15 17 17 14 14 13 11 7 6 6 5 4 3 3 4 4 3 2 2 4 5 5 6 6 7 9 11 12 12 14 14 17 18 19 19 19 18 18 19 18 18 19 21
13 17 19 18 18 18 16 14 9 7 7 6 6 5 4 3 2 2 2 2 4 6 8 9 10 11 13 13 14 16 17 18 21 23 25 26 27 29 29 29 29 27 26 26
13 15 20 16 18 20 18 15 12 10 9 8 8 7 7 6 6 5 3 3 4 7 9 11 12 14 15 17 18 20 20 23 25 28 30 31 34 35 36 39 41 40 37 35
16 14 14 14 16 21 24 20 17 15 13 13 11 9 7 6 2 1 5 7 9 11 13 15 16 19 20 22 23 25 27 29 30 32 33 36 37 38 39 39 39 41 43 42
17 17 13 9 10 14 13 13 14 14 14 13 12 10 6 3 2 6 10 14 17 19 21 23 25 26 26 28 29 32 33 34 36 37 38 40 40 42 42 41 43 45 47 48
23 21 18 11 7 8 10 10 12 13 12 11 9 6 4 4 8 12 16 19 23 26 28 29 29 29 30 30 31 32 32 33 34 35 37 39 40 42 45 48 50 51 52 53

GFSCGP_500_spd_126.txt.gz
Wind_Speed
39 38 37 37 38 40 43 46 49 56 64 64 70 68 71 78 83 88 86 85 86 84 84 83 80 79 74 75 71 67 65 63 64 63 59 55 52 44 48 42 42 40 39 35
38 36 35 37 40 43 48 52 55 58 65 67 66 70 72 75 76 82 80 85 89 94 97 97 94 87 80 80 79 75 71 69 67 66 62 60 57 48 49 48 45 43 43 36
35 34 36 39 44 49 54 57 58 58 62 60 64 64 43 48 53 48 38 40 50 66 77 87 101 102 95 83 83 81 77 74 71 68 67 65 62 59 52 52 44 40 42 41
34 35 39 42 46 52 55 46 49 53 52 50 42 40 28 23 25 26 23 24 27 30 38 52 69 84 90 81 77 84 81 77 73 71 70 71 66 57 50 51 46 46 48 48
35 36 39 43 48 46 39 39 41 41 43 33 25 23 17 10 17 26 26 27 26 26 28 32 37 52 65 67 79 81 84 80 75 74 74 70 68 56 50 51 48 48 48 50
34 37 39 44 40 32 29 32 36 36 26 14 12 18 12 21 20 20 27 26 20 19 22 26 30 32 44 66 82 86 84 78 75 74 74 77 54 54 53 52 53 53 57 56
33 34 35 33 29 27 27 29 31 27 12 12 20 26 22 27 23 30 28 20 18 9 10 13 15 20 34 51 58 68 68 71 71 71 70 71 63 53 55 56 57 60 64 58
32 31 30 27 22 27 24 28 27 17 17 18 22 22 27 30 25 29 35 20 7 5 2 9 10 12 23 35 43 52 60 63 65 69 68 68 65 61 59 57 61 63 56 62
29 24 26 22 24 27 22 21 20 15 16 19 20 18 21 25 24 28 29 27 14 8 1 2 10 13 16 22 35 37 57 68 65 64 65 65 63 61 60 63 66 64 58 58
27 19 20 22 24 28 21 24 17 14 20 21 25 16 21 22 19 19 19 21 15 10 13 2 10 13 18 22 29 36 45 46 59 60 63 60 60 62 62 63 61 62 58 52
24 17 19 18 22 23 18 15 13 16 19 21 23 18 22 16 18 16 21 22 15 4 8 9 9 13 18 21 27 35 46 49 49 50 55 57 59 57 61 62 65 60 61 62
18 13 18 20 21 20 20 13 11 14 14 18 22 21 21 11 12 15 19 17 16 12 6 14 14 9 14 12 19 25 32 41 44 43 46 57 54 53 48 47 59 53 50 53
16 16 16 19 19 20 19 12 10 12 11 15 14 21 15 7 8 11 16 17 16 13 10 8 19 17 12 14 15 20 25 31 37 41 42 39 43 41 40 36 39 43 47 50
12 14 15 18 20 18 16 10 11 12 11 15 16 15 6 6 7 10 10 12 16 15 16 12 8 3 11 14 20 20 20 27 31 21 27 27 33 26 30 33 31 35 37 35
12 13 15 17 14 12 8 7 10 12 11 15 14 9 4 2 2 7 12 16 12 12 11 12 6 1 2 9 21 33 23 26 27 16 17 19 21 20 22 25 28 32 33 35
12 13 13 12 4 10 8 8 8 6 7 7 6 7 6 5 5 3 7 7 9 9 12 11 9 8 3 5 4 12 12 13 10 13 14 18 22 25 27 28 31 32 33 38
13 12 13 11 8 12 12 7 9 7 7 6 7 5 6 5 2 1 3 5 7 9 8 9 9 11 10 9 5 5 0 11 10 12 15 17 19 21 24 27 31 34 37 40
16 15 16 18 16 12 9 10 14 12 12 8 9 10 7 6 5 5 7 7 8 8 6 5 7 8 8 8 7 5 3 1 4 10 12 14 18 19 20 21 25 30 36 39
17 19 17 21 21 16 12 13 16 16 17 16 13 10 8 9 9 9 8 7 7 7 10 10 11 11 10 9 9 7 6 6 8 9 11 11 12 14 16 17 19 20 25 31
18 21 20 20 21 19 17 15 17 17 17 17 18 12 8 8 8 9 9 9 9 9 10 10 9 10 10 10 9 9 9 10 11 14 15 15 16 17 17 17 18 18 20 21
16 21 23 23 20 18 18 18 17 17 17 15 12 9 9 8 8 6 5 5 5 4 4 6 6 6 7 9 9 10 11 13 14 16 17 18 21 21 21 22 23 25 26 26
17 18 20 22 23 21 19 19 20 15 14 11 10 9 9 8 7 5 5 5 6 6 7 7 8 8 10 10 11 13 15 17 19 22 24 25 27 29 30 32 34 35 36 37
14 16 17 23 22 25 23 22 22 18 15 14 13 12 10 9 9 9 7 5 3 3 5 8 10 11 13 15 16 16 18 20 22 25 27 29 31 33 34 37 39 39 42 43
14 15 14 16 20 20 22 22 19 21 19 17 16 15 13 12 11 8 6 4 3 7 11 15 17 19 21 22 24 26 27 29 30 34 36 37 39 41 42 44 45 46 47 48
16 15 15 14 13 17 21 22 25 23 21 19 18 16 15 14 13 11 7 6 7 13 18 22 25 26 27 29 29 30 31 32 33 34 34 35 36 38 40 41 43 45 47 50
16 18 19 17 13 15 18 17 18 17 16 17 17 16 15 14 12 9 7 8 15 21 26 28 28 28 28 27 25 22 22 23 26 29 33 35 38 41 45 48 50 52 55 57

GFSCGP_500_spd_129.txt.gz
Wind_Speed
41 44 45 42 42 41 41 41 43 46 49 50 52 53 62 68 72 73 74 78 80 82 82 83 81 79 74 74 75 74 72 66 64 62 62 61 60 57 51 44 44 43 41 40
47 45 43 42 41 40 41 42 45 50 53 55 56 58 65 68 75 78 78 78 80 85 89 91 92 92 88 82 79 78 79 75 71 65 64 62 61 57 56 50 46 47 47 45
45 46 43 41 40 40 41 43 47 51 54 57 61 60 61 58 61 65 43 30 35 46 57 65 75 87 95 94 85 84 83 83 78 71 67 66 65 63 61 57 52 49 50 46
44 44 41 39 39 40 42 46 48 51 50 48 49 56 34 39 29 27 28 32 39 42 43 42 40 46 61 82 89 93 90 86 86 80 73 70 67 65 60 60 57 51 51 46
42 38 37 37 38 40 44 46 47 44 41 45 35 21 27 15 25 31 27 32 39 40 38 37 44 46 48 49 63 76 89 89 88 83 78 70 71 65 67 65 67 59 54 49
37 36 35 35 37 41 43 41 38 32 34 37 16 18 23 22 28 25 27 36 37 36 29 32 38 42 41 44 46 53 73 83 88 86 80 75 70 68 69 69 72 63 53 51
36 35 34 34 37 39 37 34 24 28 25 15 17 22 20 25 27 27 29 35 30 26 22 30 36 36 32 32 36 43 70 85 88 88 83 80 74 69 70 66 24 74 56 45
35 33 30 32 33 34 35 22 21 26 24 22 16 19 22 26 26 30 32 34 39 22 17 18 18 13 10 14 19 28 51 74 81 83 85 82 76 75 73 80 72 40 40 44
30 30 29 31 31 28 26 19 25 27 24 19 19 16 22 26 26 28 30 34 32 27 18 20 13 11 16 7 7 17 23 41 59 66 73 74 76 76 79 76 76 83 42 42
26 27 27 29 28 24 17 23 25 24 23 20 17 21 22 27 26 24 27 32 29 22 16 7 7 9 8 3 6 14 14 26 41 54 67 68 68 76 70 73 84 68 43 47
23 23 25 25 24 20 16 24 23 22 23 24 26 24 26 28 27 23 24 24 21 15 13 5 5 3 4 4 4 14 14 19 37 43 54 59 50 70 46 56 49 46 51 55
20 22 22 21 21 18 21 25 23 21 18 18 21 25 24 29 21 19 21 21 17 15 15 8 7 7 14 5 8 16 18 24 17 51 45 57 64 63 53 53 59 60 57 60
21 20 19 22 18 20 25 25 24 23 19 16 20 24 24 24 16 17 17 15 16 14 14 13 1 14 10 13 8 9 13 21 29 24 29 50 60 62 60 61 54 56 55 61
20 17 18 18 19 23 24 24 22 23 19 17 23 24 24 17 14 9 12 17 16 17 15 11 7 8 10 20 14 15 13 16 19 24 29 31 36 46 55 50 58 60 59 58
15 15 17 17 17 21 24 22 19 22 20 23 22 22 19 12 7 8 10 10 12 15 15 13 11 11 8 4 22 20 20 19 19 20 22 32 36 36 40 45 49 52 58 41
13 14 15 16 17 15 15 14 16 17 19 23 19 11 15 16 11 11 8 8 11 12 10 12 12 11 10 9 6 13 25 31 25 25 29 25 32 37 33 19 30 26 27 27
12 14 14 16 17 18 15 9 16 16 15 8 9 10 9 9 9 7 8 9 10 8 7 8 10 11 12 11 11 11 10 8 9 10 9 14 10 12 14 17 24 27 28 30
11 13 15 16 19 21 17 11 10 14 16 12 8 8 8 9 11 10 10 11 11 10 11 12 13 12 13 12 11 11 8 7 6 4 3 4 5 8 11 15 19 20 22 25
10 13 18 17 18 23 19 15 13 14 17 20 17 14 16 14 14 14 14 14 15 15 14 12 11 10 10 10 10 10 9 8 8 7 6 3 4 7 9 12 15 16 17 19
10 12 17 21 22 24 24 24 21 19 22 22 21 22 22 19 15 13 13 12 11 10 10 9 10 10 9 8 8 7 8 7 7 7 7 8 9 10 12 14 17 19 18 20
11 14 16 20 25 29 24 24 25 21 21 22 23 22 25 20 14 13 10 8 6 6 6 7 8 9 9 11 11 12 12 12 13 14 14 16 17 19 21 23 24 26 27 28
13 15 19 22 25 28 26 25 24 23 22 23 21 20 17 15 12 11 11 8 6 6 5 4 6 7 9 11 12 13 14 14 15 17 19 21 23 26 28 30 32 34 36 38
15 17 20 23 24 27 28 28 25 21 21 24 21 18 15 14 14 13 12 11 8 5 3 4 8 10 12 14 16 17 19 21 22 25 28 31 33 34 38 40 42 43 44 46
17 18 20 22 22 24 26 26 27 26 22 24 21 19 18 17 16 16 15 12 9 6 6 9 12 16 17 19 21 24 26 28 31 33 34 34 34 31 32 33 31 33 35 38
15 18 17 19 20 19 18 23 21 21 21 22 25 22 20 19 18 17 16 13 9 8 8 12 17 19 21 23 25 27 29 30 30 29 27 26 27 29 31 31 33 34 37 41
17 16 18 19 19 17 17 18 21 23 23 24 25 24 22 21 19 18 15 11 9 9 10 16 20 21 22 22 21 20 22 23 25 28 29 29 30 32 34 35 39 42 46 50

GFSCGP_500_spd_132.txt.gz
Wind_Speed
39 38 38 43 46 48 49 46 46 45 44 46 47 52 54 56 59 62 61 64 68 70 73 76 78 81 80 76 72 72 68 70 73 71 69 69 64 60 59 57 53 50 46 44
44 44 43 43 47 49 49 48 47 46 46 49 50 54 59 56 62 63 63 68 72 75 76 77 75 75 82 89 86 82 77 72 75 77 75 69 68 64 62 59 58 50 50 47
50 48 48 45 48 49 48 47 45 45 45 47 51 51 42 55 63 56 60 63 61 47 43 44 49 53 57 59 72 84 82 83 81 82 81 74 66 65 63 62 59 58 56 51
51 47 49 47 47 47 46 47 43 44 45 47 47 50 39 52 55 45 38 37 35 35 43 54 55 49 48 47 51 52 59 77 87 88 84 80 73 71 64 59 62 61 58 55
49 50 45 45 43 42 42 42 40 41 44 47 46 49 38 42 41 34 35 35 39 39 45 50 48 40 41 46 49 52 53 52 81 85 88 82 79 73 65 63 65 67 61 59
48 48 44 43 42 38 40 38 38 41 42 44 30 29 29 32 30 31 34 35 37 39 44 43 37 35 37 46 52 54 53 48 56 80 85 86 78 75 73 65 65 69 64 65
45 44 42 39 37 37 36 35 36 37 40 39 13 23 35 36 27 30 33 35 37 41 45 38 35 42 42 40 32 36 35 36 42 56 80 87 82 78 77 67 61 84 63 69
43 39 36 37 33 34 33 31 32 34 30 27 23 37 41 30 28 32 34 34 36 44 44 33 32 36 37 35 34 22 17 24 30 44 71 84 85 83 81 67 79 52 55 72
36 33 37 31 29 29 29 29 33 30 27 27 29 31 30 24 28 34 37 36 37 39 33 30 30 31 30 28 23 13 9 5 10 28 57 80 83 84 78 76 68 59 65 83
39 29 34 27 27 25 26 28 28 24 27 26 25 24 30 25 29 35 40 31 33 33 29 28 19 24 20 23 18 8 3 13 11 10 32 67 78 83 75 76 74 69 64 50
34 27 26 26 23 23 24 25 27 24 24 30 30 32 28 25 29 33 32 26 25 25 24 25 17 20 20 17 8 11 11 5 6 11 16 47 66 64 75 73 69 58 84 58
21 21 25 21 22 19 25 26 25 26 24 27 28 26 22 23 28 32 24 22 20 21 20 19 17 14 14 3 9 12 6 11 14 10 20 26 47 71 33 67 65 50 71 36
15 23 20 19 21 22 23 25 26 27 29 30 28 29 23 26 27 27 19 17 17 19 17 21 19 15 17 10 9 4 9 6 7 11 19 21 31 54 60 48 50 67 66 72
21 22 22 15 21 23 26 27 25 27 28 28 26 26 24 25 27 25 15 16 17 19 18 19 19 18 15 8 12 8 10 7 6 6 23 17 30 34 47 53 51 45 49 55
21 20 21 20 20 23 27 27 24 25 28 26 24 26 26 27 24 14 16 14 12 14 14 14 15 16 15 13 4 13 13 10 14 6 8 8 9 17 46 47 51 60 61 57
17 20 18 16 19 23 24 21 24 24 22 21 22 22 24 22 16 17 13 11 12 15 15 14 10 10 13 11 5 2 12 9 14 10 18 7 22 15 24 24 30 46 58 61
22 18 18 15 20 23 22 23 24 20 19 18 19 20 16 13 12 12 10 10 11 12 14 12 11 8 10 11 11 12 10 9 13 18 21 18 18 15 14 36 33 34 38 39
18 16 15 16 17 21 20 22 18 15 17 16 15 14 12 14 14 11 12 14 13 14 16 15 12 12 12 13 13 11 12 10 10 9 8 9 9 10 5 5 12 17 21 20
16 15 16 16 18 19 20 18 18 15 14 15 15 18 16 15 17 17 17 17 15 12 8 6 7 9 10 9 11 12 14 16 15 13 12 9 5 3 2 6 11 13 15 17
15 14 14 16 18 25 19 21 21 24 21 20 20 19 19 22 22 21 20 16 14 10 4 5 6 7 6 6 7 7 7 8 8 6 5 5 5 5 7 10 12 15 17 19
13 13 14 17 20 26 27 27 26 26 26 26 23 21 21 22 22 24 21 15 12 10 6 5 4 3 4 7 8 9 9 10 10 10 11 12 12 13 15 17 19 21 23 25
11 12 14 18 21 26 24 27 29 28 26 26 24 23 23 23 23 23 21 15 14 11 7 5 2 3 5 6 9 11 13 15 17 20 22 25 28 30 31 32 33 34 36 38
13 13 16 19 22 25 26 27 30 30 29 26 23 24 24 22 20 18 16 14 13 12 10 8 6 7 8 11 13 14 16 18 22 25 28 30 31 35 38 41 44 44 42 40
12 15 17 22 23 27 27 28 26 26 25 26 25 21 24 23 19 18 17 15 15 14 12 9 8 9 11 12 15 18 21 24 27 28 30 31 33 33 33 32 28 29 30 32
11 16 18 23 24 25 24 22 21 20 21 21 22 23 24 22 20 19 17 16 16 15 13 12 8 8 11 14 16 19 22 26 28 29 29 29 30 31 31 32 35 37 38 41
14 16 21 21 25 23 22 21 18 15 17 18 18 18 20 21 23 22 18 16 16 15 14 13 10 11 14 16 18 20 22 25 26 27 27 28 31 33 37 40 42 43 45 47